Wetterdaten: Montag, 21.06.2021
Datum Zeit Temp. Aussen Temp. o. S. Temp +5cm Feuchte Auss Luftdruck Regen Sonnenschein Regendauer Solar Windben Empfang
21.06.2021 00:00 22,4 C 21,7 C 19,5 C 73 % 1005,7 hPa 0,0 l/m 0 min 0 min 0 W/m 6,4 km/h (2 Bft) 97,92 %
21.06.2021 00:02 22,4 C 21,7 C 19,5 C 74 % 1005,7 hPa 0,0 l/m 0 min 2 min 0 W/m 3,2 km/h (1 Bft) 96,88 %
21.06.2021 00:04 22,4 C 21,7 C 18,9 C 75 % 1005,7 hPa 0,0 l/m 0 min 2 min 0 W/m 6,4 km/h (2 Bft) 90,00 %
21.06.2021 00:08 22,3 C 21,1 C 18,9 C 76 % 1006,0 hPa 0,0 l/m 0 min 4 min 0 W/m 3,2 km/h (1 Bft) 95,96 %
21.06.2021 00:10 22,3 C 21,1 C 18,4 C 77 % 1006,1 hPa 0,0 l/m 0 min 2 min 0 W/m 3,2 km/h (1 Bft) 95,74 %
21.06.2021 00:12 22,3 C 21,1 C 17,8 C 78 % 1006,3 hPa 0,0 l/m 0 min 2 min 0 W/m 6,4 km/h (2 Bft) 93,62 %
21.06.2021 00:14 22,3 C 21,1 C 17,8 C 79 % 1006,3 hPa 0,2 l/m 0 min 2 min 0 W/m 6,4 km/h (2 Bft) 93,62 %
21.06.2021 00:16 22,3 C 21,1 C 17,8 C 80 % 1006,3 hPa 0,0 l/m 0 min 2 min 0 W/m 3,2 km/h (1 Bft) 95,12 %
21.06.2021 00:18 22,2 C 20,6 C 17,3 C 81 % 1006,3 hPa 0,0 l/m 0 min 2 min 0 W/m 6,4 km/h (2 Bft) 95,74 %
21.06.2021 00:20 22,2 C 20,6 C 17,3 C 82 % 1006,3 hPa 0,2 l/m 0 min 2 min 0 W/m 3,2 km/h (1 Bft) 95,65 %
21.06.2021 00:22 22,2 C 20,0 C 17,3 C 83 % 1006,3 hPa 0,0 l/m 0 min 2 min 0 W/m 0,0 km/h (0 Bft) 95,74 %
21.06.2021 00:24 22,2 C 19,4 C 17,3 C 84 % 1006,3 hPa 0,4 l/m 0 min 2 min 0 W/m 0,0 km/h (0 Bft) 95,74 %
21.06.2021 00:26 22,2 C 19,4 C 17,3 C 85 % 1006,3 hPa 0,6 l/m 0 min 2 min 0 W/m 0,0 km/h (0 Bft) 95,74 %
21.06.2021 00:28 22,1 C 18,9 C 16,7 C 85 % 1006,2 hPa 0,2 l/m 0 min 2 min 0 W/m 3,2 km/h (1 Bft) 93,62 %
21.06.2021 00:30 22,1 C 18,9 C 16,7 C 85 % 1006,2 hPa 0,2 l/m 0 min 2 min 0 W/m 3,2 km/h (1 Bft) 95,74 %
21.06.2021 00:32 22,0 C 18,9 C 16,7 C 86 % 1006,0 hPa 0,0 l/m 0 min 2 min 0 W/m 3,2 km/h (1 Bft) 93,48 %
21.06.2021 00:34 22,0 C 18,3 C 16,7 C 86 % 1006,0 hPa 0,0 l/m 0 min 0 min 0 W/m 3,2 km/h (1 Bft) 93,62 %
21.06.2021 00:36 21,8 C 18,3 C 16,1 C 85 % 1006,0 hPa 0,0 l/m 0 min 2 min 0 W/m 3,2 km/h (1 Bft) 98,08 %
21.06.2021 00:38 21,7 C 18,3 C 16,1 C 85 % 1006,0 hPa 0,0 l/m 0 min 0 min 0 W/m 3,2 km/h (1 Bft) 93,62 %
21.06.2021 00:40 21,5 C 18,3 C 16,1 C 85 % 1005,9 hPa 0,0 l/m 0 min 0 min 0 W/m 6,4 km/h (2 Bft) 95,74 %
21.06.2021 00:42 21,4 C 18,3 C 16,1 C 85 % 1005,9 hPa 0,0 l/m 0 min 0 min 0 W/m 6,4 km/h (2 Bft) 95,65 %
21.06.2021 00:44 21,3 C 18,3 C 16,1 C 86 % 1005,9 hPa 0,0 l/m 0 min 0 min 0 W/m 3,2 km/h (1 Bft) 93,62 %
21.06.2021 00:46 21,1 C 18,3 C 16,1 C 87 % 1005,8 hPa 0,0 l/m 0 min 0 min 0 W/m 6,4 km/h (2 Bft) 95,12 %
21.06.2021 00:48 21,0 C 18,3 C 16,1 C 87 % 1005,8 hPa 0,0 l/m 0 min 0 min 0 W/m 9,7 km/h (2 Bft) 97,87 %
21.06.2021 00:50 20,9 C 18,3 C 16,1 C 87 % 1005,8 hPa 0,0 l/m 0 min 0 min 0 W/m 6,4 km/h (2 Bft) 95,74 %
21.06.2021 00:52 20,8 C 18,3 C 16,1 C 88 % 1005,7 hPa 0,0 l/m 0 min 0 min 0 W/m 6,4 km/h (2 Bft) 97,87 %
21.06.2021 00:54 20,6 C 18,3 C 16,1 C 88 % 1005,7 hPa 0,0 l/m 0 min 0 min 0 W/m 12,9 km/h (3 Bft) 97,87 %
21.06.2021 00:56 20,5 C 18,3 C 15,6 C 88 % 1005,7 hPa 0,0 l/m 0 min 0 min 0 W/m 12,9 km/h (3 Bft) 100,00 %
21.06.2021 00:58 20,4 C 18,3 C 15,6 C 88 % 1005,7 hPa 0,0 l/m 0 min 0 min 0 W/m 9,7 km/h (2 Bft) 100,00 %
21.06.2021 01:00 20,4 C 18,3 C 15,6 C 88 % 1005,7 hPa 0,0 l/m 0 min 0 min 0 W/m 6,4 km/h (2 Bft) 100,00 %
21.06.2021 01:02 20,3 C 18,3 C 16,1 C 88 % 1005,7 hPa 0,0 l/m 0 min 0 min 0 W/m 12,9 km/h (3 Bft) 100,00 %
21.06.2021 01:04 20,2 C 18,3 C 16,1 C 89 % 1005,6 hPa 0,0 l/m 0 min 0 min 0 W/m 9,7 km/h (2 Bft) 97,87 %
21.06.2021 01:06 20,1 C 18,3 C 15,6 C 89 % 1005,6 hPa 0,0 l/m 0 min 0 min 0 W/m 12,9 km/h (3 Bft) 96,15 %
21.06.2021 01:08 20,1 C 18,3 C 15,6 C 89 % 1005,6 hPa 0,0 l/m 0 min 0 min 0 W/m 12,9 km/h (3 Bft) 100,00 %
21.06.2021 01:10 20,0 C 18,3 C 15,6 C 89 % 1005,5 hPa 0,0 l/m 0 min 0 min 0 W/m 12,9 km/h (3 Bft) 100,00 %
21.06.2021 01:12 19,9 C 18,3 C 15,6 C 90 % 1005,4 hPa 0,0 l/m 0 min 0 min 0 W/m 12,9 km/h (3 Bft) 100,00 %
21.06.2021 01:14 19,9 C 18,3 C 15,6 C 90 % 1005,3 hPa 0,0 l/m 0 min 0 min 0 W/m 16,1 km/h (3 Bft) 97,87 %
21.06.2021 01:16 19,8 C 18,3 C 15,6 C 90 % 1005,3 hPa 0,0 l/m 0 min 0 min 0 W/m 9,7 km/h (2 Bft) 100,00 %
21.06.2021 01:18 19,7 C 18,3 C 15,6 C 90 % 1005,2 hPa 0,0 l/m 0 min 0 min 0 W/m 9,7 km/h (2 Bft) 100,00 %
21.06.2021 01:20 19,6 C 18,3 C 15,6 C 90 % 1005,1 hPa 0,0 l/m 0 min 0 min 0 W/m 19,3 km/h (3 Bft) 100,00 %
21.06.2021 01:22 19,5 C 18,3 C 15,6 C 90 % 1005,1 hPa 0,0 l/m 0 min 0 min 0 W/m 12,9 km/h (3 Bft) 100,00 %
21.06.2021 01:24 19,5 C 18,3 C 15,6 C 91 % 1005,1 hPa 0,0 l/m 0 min 0 min 0 W/m 12,9 km/h (3 Bft) 100,00 %
21.06.2021 01:26 19,5 C 18,3 C 15,6 C 91 % 1005,1 hPa 0,0 l/m 0 min 0 min 0 W/m 9,7 km/h (2 Bft) 100,00 %
21.06.2021 01:28 19,5 C 18,3 C 15,6 C 91 % 1005,1 hPa 0,0 l/m 0 min 0 min 0 W/m 16,1 km/h (3 Bft) 100,00 %
21.06.2021 01:30 19,4 C 18,3 C 15,6 C 91 % 1005,0 hPa 0,0 l/m 0 min 0 min 0 W/m 9,7 km/h (2 Bft) 100,00 %
21.06.2021 01:32 19,4 C 18,3 C 15,6 C 91 % 1005,0 hPa 0,0 l/m 0 min 0 min 0 W/m 9,7 km/h (2 Bft) 100,00 %
21.06.2021 01:34 19,4 C 18,3 C 15,6 C 91 % 1005,0 hPa 0,0 l/m 0 min 0 min 0 W/m 6,4 km/h (2 Bft) 100,00 %
21.06.2021 01:36 19,4 C 18,3 C 15,6 C 92 % 1005,0 hPa 0,0 l/m 0 min 0 min 0 W/m 6,4 km/h (2 Bft) 100,00 %
21.06.2021 01:38 19,3 C 18,3 C 15,6 C 92 % 1005,0 hPa 0,0 l/m 0 min 0 min 0 W/m 16,1 km/h (3 Bft) 100,00 %
21.06.2021 01:40 19,3 C 18,3 C 15,6 C 92 % 1005,1 hPa 0,0 l/m 0 min 0 min 0 W/m 22,5 km/h (4 Bft) 100,00 %
21.06.2021 01:42 19,3 C 18,3 C 15,6 C 92 % 1005,0 hPa 0,0 l/m 0 min 0 min 0 W/m 16,1 km/h (3 Bft) 100,00 %
21.06.2021 01:44 19,3 C 18,3 C 15,6 C 92 % 1004,9 hPa 0,0 l/m 0 min 0 min 0 W/m 12,9 km/h (3 Bft) 97,83 %
21.06.2021 01:46 19,3 C 18,3 C 15,6 C 92 % 1004,9 hPa 0,0 l/m 0 min 0 min 0 W/m 12,9 km/h (3 Bft) 100,00 %
21.06.2021 01:48 19,3 C 18,3 C 15,6 C 93 % 1004,9 hPa 0,0 l/m 0 min 0 min 0 W/m 12,9 km/h (3 Bft) 97,87 %
21.06.2021 01:50 19,3 C 18,3 C 15,6 C 93 % 1004,9 hPa 0,0 l/m 0 min 0 min 0 W/m 19,3 km/h (3 Bft) 97,87 %
21.06.2021 01:52 19,2 C 18,3 C 15,6 C 92 % 1004,9 hPa 0,0 l/m 0 min 0 min 0 W/m 16,1 km/h (3 Bft) 95,74 %
21.06.2021 01:54 19,2 C 18,3 C 15,6 C 93 % 1004,8 hPa 0,0 l/m 0 min 0 min 0 W/m 12,9 km/h (3 Bft) 97,87 %
21.06.2021 01:56 19,2 C 18,3 C 15,6 C 93 % 1004,8 hPa 0,0 l/m 0 min 0 min 0 W/m 22,5 km/h (4 Bft) 95,65 %
21.06.2021 01:58 19,3 C 18,3 C 16,1 C 93 % 1004,8 hPa 0,0 l/m 0 min 0 min 0 W/m 16,1 km/h (3 Bft) 97,87 %
21.06.2021 02:00 19,3 C 18,3 C 16,1 C 93 % 1004,8 hPa 0,0 l/m 0 min 0 min 0 W/m 16,1 km/h (3 Bft) 95,74 %
21.06.2021 02:02 19,3 C 18,3 C 15,6 C 93 % 1004,8 hPa 0,0 l/m 0 min 0 min 0 W/m 25,7 km/h (4 Bft) 98,15 %
21.06.2021 02:04 19,3 C 18,3 C 16,1 C 93 % 1004,8 hPa 0,0 l/m 0 min 0 min 0 W/m 19,3 km/h (3 Bft) 95,65 %
21.06.2021 02:06 19,3 C 18,3 C 15,6 C 93 % 1004,8 hPa 0,0 l/m 0 min 0 min 0 W/m 19,3 km/h (3 Bft) 97,87 %
21.06.2021 02:08 19,3 C 18,3 C 16,1 C 93 % 1004,9 hPa 0,0 l/m 0 min 0 min 0 W/m 16,1 km/h (3 Bft) 97,87 %
21.06.2021 02:10 19,3 C 18,3 C 16,1 C 93 % 1004,9 hPa 0,0 l/m 0 min 2 min 0 W/m 12,9 km/h (3 Bft) 97,87 %
21.06.2021 02:12 19,3 C 18,3 C 16,1 C 94 % 1005,0 hPa 0,4 l/m 0 min 2 min 0 W/m 12,9 km/h (3 Bft) 97,87 %
21.06.2021 02:14 19,3 C 18,3 C 16,1 C 94 % 1005,0 hPa 0,8 l/m 0 min 2 min 0 W/m 12,9 km/h (3 Bft) 95,74 %
21.06.2021 02:16 19,3 C 17,8 C 16,1 C 94 % 1004,9 hPa 0,2 l/m 0 min 2 min 0 W/m 12,9 km/h (3 Bft) 97,83 %
21.06.2021 02:18 19,3 C 17,8 C 16,1 C 94 % 1004,8 hPa 0,2 l/m 0 min 2 min 0 W/m 12,9 km/h (3 Bft) 95,74 %
21.06.2021 02:20 19,3 C 17,8 C 16,1 C 94 % 1004,8 hPa 0,2 l/m 0 min 2 min 0 W/m 16,1 km/h (3 Bft) 97,87 %
21.06.2021 02:22 19,2 C 17,8 C 16,1 C 94 % 1004,8 hPa 0,0 l/m 0 min 2 min 0 W/m 19,3 km/h (3 Bft) 97,87 %
21.06.2021 02:24 19,2 C 17,8 C 16,1 C 95 % 1004,8 hPa 0,2 l/m 0 min 2 min 0 W/m 19,3 km/h (3 Bft) 97,87 %
21.06.2021 02:26 19,1 C 17,8 C 16,1 C 95 % 1004,7 hPa 0,0 l/m 0 min 2 min 0 W/m 22,5 km/h (4 Bft) 95,74 %
21.06.2021 02:28 19,1 C 17,8 C 16,1 C 95 % 1004,8 hPa 0,0 l/m 0 min 0 min 0 W/m 16,1 km/h (3 Bft) 95,65 %
21.06.2021 02:30 19,1 C 17,8 C 16,1 C 95 % 1004,7 hPa 0,0 l/m 0 min 0 min 0 W/m 19,3 km/h (3 Bft) 97,87 %
21.06.2021 02:32 19,1 C 17,8 C 16,1 C 95 % 1004,7 hPa 0,0 l/m 0 min 0 min 0 W/m 16,1 km/h (3 Bft) 97,92 %
21.06.2021 02:34 19,1 C 17,8 C 16,1 C 95 % 1004,7 hPa 0,0 l/m 0 min 0 min 0 W/m 16,1 km/h (3 Bft) 98,00 %
21.06.2021 02:36 19,0 C 17,8 C 16,1 C 96 % 1004,6 hPa 0,0 l/m 0 min 0 min 0 W/m 16,1 km/h (3 Bft) 94,44 %
21.06.2021 02:38 19,0 C 17,8 C 16,1 C 96 % 1004,6 hPa 0,0 l/m 0 min 0 min 0 W/m 9,7 km/h (2 Bft) 95,74 %
21.06.2021 02:40 19,1 C 17,8 C 16,1 C 96 % 1004,6 hPa 0,0 l/m 0 min 0 min 0 W/m 19,3 km/h (3 Bft) 95,74 %
21.06.2021 02:42 19,0 C 17,8 C 16,1 C 96 % 1004,6 hPa 0,0 l/m 0 min 0 min 0 W/m 12,9 km/h (3 Bft) 92,59 %
21.06.2021 02:44 19,0 C 17,8 C 16,1 C 96 % 1004,5 hPa 0,0 l/m 0 min 0 min 0 W/m 22,5 km/h (4 Bft) 93,62 %
21.06.2021 02:46 19,0 C 18,3 C 16,1 C 96 % 1004,5 hPa 0,0 l/m 0 min 0 min 0 W/m 22,5 km/h (4 Bft) 96,00 %
21.06.2021 02:48 19,0 C 17,8 C 16,1 C 96 % 1004,5 hPa 0,0 l/m 0 min 0 min 0 W/m 12,9 km/h (3 Bft) 94,44 %
21.06.2021 02:50 19,0 C 17,8 C 16,1 C 96 % 1004,5 hPa 0,0 l/m 0 min 0 min 0 W/m 19,3 km/h (3 Bft) 95,74 %
21.06.2021 02:52 19,0 C 17,8 C 16,1 C 96 % 1004,5 hPa 0,0 l/m 0 min 0 min 0 W/m 16,1 km/h (3 Bft) 96,30 %
21.06.2021 02:54 19,0 C 17,8 C 16,1 C 96 % 1004,5 hPa 0,0 l/m 0 min 0 min 0 W/m 16,1 km/h (3 Bft) 96,00 %
21.06.2021 02:56 19,0 C 17,8 C 16,1 C 96 % 1004,5 hPa 0,0 l/m 0 min 0 min 0 W/m 12,9 km/h (3 Bft) 94,44 %
21.06.2021 02:58 19,0 C 18,3 C 16,1 C 97 % 1004,4 hPa 0,0 l/m 0 min 0 min 0 W/m 12,9 km/h (3 Bft) 96,00 %
21.06.2021 03:00 19,0 C 18,3 C 16,1 C 97 % 1004,4 hPa 0,0 l/m 0 min 0 min 0 W/m 16,1 km/h (3 Bft) 95,74 %
21.06.2021 03:02 19,0 C 17,8 C 16,1 C 97 % 1004,4 hPa 0,0 l/m 0 min 0 min 0 W/m 12,9 km/h (3 Bft) 92,73 %
21.06.2021 03:04 19,0 C 17,8 C 16,1 C 97 % 1004,4 hPa 0,0 l/m 0 min 0 min 0 W/m 16,1 km/h (3 Bft) 93,94 %
21.06.2021 03:06 19,0 C 17,8 C 16,1 C 97 % 1004,3 hPa 0,2 l/m 0 min 2 min 0 W/m 19,3 km/h (3 Bft) 90,91 %
21.06.2021 03:08 19,0 C 17,8 C 16,1 C 97 % 1004,3 hPa 0,0 l/m 0 min 2 min 0 W/m 16,1 km/h (3 Bft) 95,74 %
21.06.2021 03:10 19,0 C 17,8 C 16,1 C 97 % 1004,5 hPa 0,4 l/m 0 min 2 min 0 W/m 6,4 km/h (2 Bft) 95,74 %
21.06.2021 03:12 19,0 C 17,8 C 16,1 C 97 % 1004,4 hPa 1,0 l/m 0 min 2 min 0 W/m 22,5 km/h (4 Bft) 92,00 %
21.06.2021 03:14 18,9 C 17,8 C 16,1 C 97 % 1004,2 hPa 0,6 l/m 0 min 2 min 0 W/m 19,3 km/h (3 Bft) 97,14 %
21.06.2021 03:16 18,9 C 17,8 C 16,1 C 97 % 1004,2 hPa 0,4 l/m 0 min 2 min 0 W/m 12,9 km/h (3 Bft) 94,55 %
21.06.2021 03:18 18,9 C 17,8 C 16,1 C 97 % 1004,1 hPa 0,0 l/m 0 min 2 min 0 W/m 12,9 km/h (3 Bft) 94,00 %
21.06.2021 03:20 18,9 C 17,8 C 16,1 C 97 % 1004,1 hPa 0,2 l/m 0 min 2 min 0 W/m 22,5 km/h (4 Bft) 97,14 %
21.06.2021 03:22 18,9 C 17,8 C 16,1 C 97 % 1004,0 hPa 0,0 l/m 0 min 0 min 0 W/m 16,1 km/h (3 Bft) 92,86 %
21.06.2021 03:24 18,8 C 17,8 C 16,1 C 97 % 1004,0 hPa 0,0 l/m 0 min 2 min 0 W/m 12,9 km/h (3 Bft) 96,00 %
21.06.2021 03:26 18,8 C 17,8 C 16,1 C 97 % 1004,0 hPa 0,0 l/m 0 min 2 min 0 W/m 9,7 km/h (2 Bft) 95,12 %
21.06.2021 03:28 18,8 C 17,2 C 16,1 C 98 % 1004,1 hPa 0,0 l/m 0 min 2 min 0 W/m 12,9 km/h (3 Bft) 97,96 %
21.06.2021 03:30 18,8 C 17,8 C 16,1 C 97 % 1004,2 hPa 0,0 l/m 0 min 0 min 0 W/m 12,9 km/h (3 Bft) 96,00 %
21.06.2021 03:32 18,8 C 17,8 C 16,7 C 97 % 1004,3 hPa 0,0 l/m 0 min 0 min 0 W/m 19,3 km/h (3 Bft) 94,29 %
21.06.2021 03:34 18,8 C 17,8 C 16,7 C 97 % 1004,4 hPa 0,0 l/m 0 min 2 min 0 W/m 9,7 km/h (2 Bft) 98,21 %
21.06.2021 03:36 18,8 C 17,8 C 16,7 C 98 % 1004,4 hPa 0,4 l/m 0 min 2 min 0 W/m 12,9 km/h (3 Bft) 98,00 %
21.06.2021 03:38 18,8 C 17,8 C 16,1 C 98 % 1004,4 hPa 0,4 l/m 0 min 2 min 0 W/m 19,3 km/h (3 Bft) 97,83 %
21.06.2021 03:40 18,8 C 17,8 C 16,7 C 98 % 1004,3 hPa 0,8 l/m 0 min 2 min 0 W/m 12,9 km/h (3 Bft) 93,62 %
21.06.2021 03:42 18,8 C 17,8 C 16,7 C 98 % 1004,2 hPa 1,4 l/m 0 min 2 min 0 W/m 12,9 km/h (3 Bft) 94,29 %
21.06.2021 03:44 18,8 C 17,2 C 16,1 C 98 % 1004,1 hPa 0,8 l/m 0 min 2 min 0 W/m 16,1 km/h (3 Bft) 96,43 %
21.06.2021 03:46 18,8 C 17,2 C 16,1 C 98 % 1004,1 hPa 0,4 l/m 0 min 2 min 0 W/m 6,4 km/h (2 Bft) 98,00 %
21.06.2021 03:48 18,7 C 17,2 C 16,1 C 98 % 1004,1 hPa 0,8 l/m 0 min 2 min 0 W/m 22,5 km/h (4 Bft) 100,00 %
21.06.2021 03:50 18,6 C 17,2 C 16,1 C 98 % 1004,0 hPa 0,2 l/m 0 min 2 min 0 W/m 16,1 km/h (3 Bft) 100,00 %
21.06.2021 03:52 18,6 C 17,2 C 16,1 C 98 % 1004,1 hPa 0,2 l/m 0 min 2 min 0 W/m 12,9 km/h (3 Bft) 98,00 %
21.06.2021 03:54 18,6 C 17,2 C 16,1 C 98 % 1003,9 hPa 0,0 l/m 0 min 2 min 0 W/m 12,9 km/h (3 Bft) 97,14 %
21.06.2021 03:56 18,6 C 17,2 C 16,1 C 98 % 1004,0 hPa 0,2 l/m 0 min 2 min 0 W/m 25,7 km/h (4 Bft) 100,00 %
21.06.2021 03:58 18,5 C 17,2 C 16,1 C 98 % 1003,9 hPa 0,0 l/m 0 min 2 min 0 W/m 19,3 km/h (3 Bft) 100,00 %
21.06.2021 04:00 18,5 C 17,2 C 16,1 C 98 % 1003,8 hPa 0,0 l/m 0 min 2 min 0 W/m 12,9 km/h (3 Bft) 100,00 %
21.06.2021 04:05 18,5 C 17,2 C 16,1 C 98 % 1003,7 hPa 0,0 l/m 0 min 0 min 0 W/m 22,5 km/h (4 Bft) 100,00 %
21.06.2021 04:06 18,5 C 17,2 C 16,1 C 98 % 1003,7 hPa 0,0 l/m 0 min 0 min 0 W/m 19,3 km/h (3 Bft) 95,65 %
21.06.2021 04:08 18,4 C 17,2 C 16,1 C 98 % 1003,8 hPa 0,0 l/m 0 min 0 min 0 W/m 12,9 km/h (3 Bft) 100,00 %
21.06.2021 04:10 18,4 C 17,2 C 16,1 C 98 % 1003,9 hPa 0,2 l/m 0 min 2 min 0 W/m 9,7 km/h (2 Bft) 97,87 %
21.06.2021 04:12 18,4 C 17,2 C 16,1 C 98 % 1004,0 hPa 0,4 l/m 0 min 2 min 0 W/m 9,7 km/h (2 Bft) 100,00 %
21.06.2021 04:14 18,4 C 17,2 C 16,7 C 98 % 1004,0 hPa 1,0 l/m 0 min 2 min 0 W/m 9,7 km/h (2 Bft) 98,11 %
21.06.2021 04:16 18,4 C 17,2 C 16,7 C 98 % 1004,1 hPa 1,2 l/m 0 min 2 min 0 W/m 9,7 km/h (2 Bft) 100,00 %
21.06.2021 04:18 18,4 C 17,2 C 16,7 C 98 % 1003,9 hPa 0,6 l/m 0 min 2 min 0 W/m 9,7 km/h (2 Bft) 100,00 %
21.06.2021 04:20 18,4 C 17,2 C 16,1 C 98 % 1003,9 hPa 0,4 l/m 0 min 2 min 0 W/m 16,1 km/h (3 Bft) 100,00 %
21.06.2021 04:22 18,4 C 17,2 C 16,1 C 98 % 1003,9 hPa 0,2 l/m 0 min 2 min 0 W/m 9,7 km/h (2 Bft) 100,00 %
21.06.2021 04:24 18,4 C 17,2 C 16,1 C 98 % 1004,0 hPa 0,2 l/m 0 min 2 min 0 W/m 6,4 km/h (2 Bft) 100,00 %
21.06.2021 04:26 18,4 C 17,2 C 16,1 C 98 % 1004,0 hPa 0,4 l/m 0 min 2 min 0 W/m 9,7 km/h (2 Bft) 100,00 %
21.06.2021 04:28 18,4 C 17,2 C 16,1 C 98 % 1004,1 hPa 0,6 l/m 0 min 2 min 0 W/m 9,7 km/h (2 Bft) 100,00 %
21.06.2021 04:30 18,4 C 17,2 C 16,7 C 98 % 1004,1 hPa 0,8 l/m 0 min 2 min 0 W/m 6,4 km/h (2 Bft) 100,00 %
21.06.2021 04:32 18,4 C 17,2 C 16,7 C 98 % 1004,1 hPa 0,8 l/m 0 min 2 min 0 W/m 6,4 km/h (2 Bft) 97,96 %
21.06.2021 04:34 18,4 C 17,2 C 16,7 C 99 % 1004,1 hPa 0,4 l/m 0 min 2 min 0 W/m 6,4 km/h (2 Bft) 100,00 %
21.06.2021 04:36 18,4 C 17,2 C 16,7 C 99 % 1004,1 hPa 0,0 l/m 0 min 2 min 0 W/m 16,1 km/h (3 Bft) 100,00 %
21.06.2021 04:38 18,3 C 17,2 C 16,1 C 99 % 1004,1 hPa 0,0 l/m 0 min 2 min 0 W/m 9,7 km/h (2 Bft) 97,87 %
21.06.2021 04:40 18,3 C 17,2 C 16,1 C 99 % 1004,1 hPa 0,0 l/m 0 min 2 min 0 W/m 12,9 km/h (3 Bft) 100,00 %
21.06.2021 04:42 18,3 C 17,2 C 16,1 C 99 % 1004,0 hPa 0,0 l/m 0 min 0 min 0 W/m 16,1 km/h (3 Bft) 100,00 %
21.06.2021 04:44 18,3 C 17,2 C 16,7 C 99 % 1004,0 hPa 0,0 l/m 0 min 0 min 0 W/m 6,4 km/h (2 Bft) 100,00 %
21.06.2021 04:46 18,3 C 17,2 C 16,1 C 99 % 1004,1 hPa 0,0 l/m 0 min 0 min 0 W/m 22,5 km/h (4 Bft) 100,00 %
21.06.2021 04:48 18,2 C 17,2 C 16,1 C 99 % 1004,0 hPa 0,0 l/m 0 min 0 min 0 W/m 9,7 km/h (2 Bft) 97,87 %
21.06.2021 04:50 18,2 C 17,2 C 16,1 C 99 % 1004,0 hPa 0,2 l/m 0 min 0 min 0 W/m 16,1 km/h (3 Bft) 100,00 %
21.06.2021 04:52 18,1 C 17,2 C 16,1 C 99 % 1004,0 hPa 0,0 l/m 0 min 0 min 0 W/m 16,1 km/h (3 Bft) 100,00 %
21.06.2021 04:54 18,1 C 17,2 C 16,1 C 99 % 1004,1 hPa 0,0 l/m 0 min 0 min 0 W/m 25,7 km/h (4 Bft) 100,00 %
21.06.2021 04:56 18,1 C 16,7 C 16,1 C 99 % 1004,1 hPa 0,0 l/m 0 min 0 min 0 W/m 19,3 km/h (3 Bft) 100,00 %
21.06.2021 04:58 18,0 C 16,7 C 16,1 C 99 % 1004,0 hPa 0,0 l/m 0 min 0 min 0 W/m 16,1 km/h (3 Bft) 100,00 %
21.06.2021 05:00 18,0 C 16,7 C 16,1 C 99 % 1004,0 hPa 0,0 l/m 0 min 2 min 0 W/m 16,1 km/h (3 Bft) 100,00 %
21.06.2021 05:02 18,0 C 16,7 C 16,1 C 99 % 1004,0 hPa 0,0 l/m 0 min 2 min 0 W/m 12,9 km/h (3 Bft) 95,83 %
21.06.2021 05:04 17,9 C 16,7 C 16,1 C 99 % 1004,0 hPa 0,0 l/m 0 min 2 min 0 W/m 12,9 km/h (3 Bft) 97,87 %
21.06.2021 05:06 17,9 C 16,7 C 16,1 C 99 % 1004,0 hPa 0,0 l/m 0 min 2 min 0 W/m 9,7 km/h (2 Bft) 100,00 %
21.06.2021 05:08 17,9 C 16,7 C 16,1 C 99 % 1003,9 hPa 0,0 l/m 0 min 2 min 0 W/m 16,1 km/h (3 Bft) 100,00 %
21.06.2021 05:10 17,9 C 16,7 C 16,1 C 99 % 1003,9 hPa 0,2 l/m 0 min 2 min 0 W/m 12,9 km/h (3 Bft) 100,00 %
21.06.2021 05:12 17,9 C 16,7 C 16,1 C 99 % 1003,9 hPa 0,0 l/m 0 min 2 min 0 W/m 12,9 km/h (3 Bft) 97,37 %
21.06.2021 05:14 17,9 C 16,7 C 16,1 C 99 % 1003,9 hPa 0,0 l/m 0 min 0 min 0 W/m 19,3 km/h (3 Bft) 98,00 %
21.06.2021 05:16 17,9 C 16,7 C 16,1 C 99 % 1003,9 hPa 0,0 l/m 0 min 2 min 0 W/m 9,7 km/h (2 Bft) 98,11 %
21.06.2021 05:18 17,8 C 16,7 C 16,1 C 99 % 1003,9 hPa 0,0 l/m 0 min 2 min 0 W/m 12,9 km/h (3 Bft) 100,00 %
21.06.2021 05:20 17,8 C 16,7 C 15,6 C 99 % 1003,8 hPa 0,0 l/m 0 min 2 min 0 W/m 12,9 km/h (3 Bft) 100,00 %
21.06.2021 05:22 17,7 C 16,7 C 15,6 C 99 % 1003,7 hPa 0,0 l/m 0 min 2 min 0 W/m 12,9 km/h (3 Bft) 100,00 %
21.06.2021 05:24 17,7 C 16,7 C 16,1 C 99 % 1003,7 hPa 0,0 l/m 0 min 2 min 0 W/m 16,1 km/h (3 Bft) 97,83 %
21.06.2021 05:26 17,6 C 16,7 C 16,1 C 99 % 1003,6 hPa 0,0 l/m 0 min 2 min 0 W/m 22,5 km/h (4 Bft) 97,73 %
21.06.2021 05:28 17,6 C 16,7 C 16,1 C 99 % 1003,7 hPa 0,0 l/m 0 min 2 min 0 W/m 9,7 km/h (2 Bft) 96,00 %
21.06.2021 05:30 17,6 C 16,7 C 16,1 C 99 % 1003,7 hPa 0,0 l/m 0 min 0 min 0 W/m 12,9 km/h (3 Bft) 95,74 %
21.06.2021 05:32 17,6 C 16,7 C 16,1 C 99 % 1003,7 hPa 0,0 l/m 0 min 0 min 0 W/m 6,4 km/h (2 Bft) 97,73 %
21.06.2021 05:34 17,6 C 16,7 C 16,1 C 99 % 1003,7 hPa 0,0 l/m 0 min 0 min 0 W/m 16,1 km/h (3 Bft) 98,00 %
21.06.2021 05:36 17,6 C 16,7 C 15,6 C 99 % 1003,7 hPa 0,0 l/m 0 min 0 min 0 W/m 12,9 km/h (3 Bft) 95,65 %
21.06.2021 05:38 17,5 C 16,7 C 16,1 C 99 % 1003,7 hPa 0,0 l/m 0 min 0 min 0 W/m 16,1 km/h (3 Bft) 97,87 %
21.06.2021 05:40 17,5 C 16,7 C 16,1 C 99 % 1003,7 hPa 0,0 l/m 0 min 0 min 0 W/m 19,3 km/h (3 Bft) 98,11 %
21.06.2021 05:42 17,5 C 16,7 C 16,1 C 99 % 1003,7 hPa 0,0 l/m 0 min 0 min 4 W/m 19,3 km/h (3 Bft) 95,74 %
21.06.2021 05:44 17,5 C 16,7 C 15,6 C 99 % 1003,6 hPa 0,0 l/m 0 min 0 min 6 W/m 16,1 km/h (3 Bft) 97,37 %
21.06.2021 05:46 17,5 C 16,7 C 15,6 C 99 % 1003,6 hPa 0,0 l/m 0 min 0 min 7 W/m 16,1 km/h (3 Bft) 97,96 %
21.06.2021 05:48 17,5 C 16,7 C 15,6 C 99 % 1003,5 hPa 0,0 l/m 0 min 2 min 11 W/m 12,9 km/h (3 Bft) 97,87 %
21.06.2021 05:50 17,5 C 16,7 C 15,6 C 99 % 1003,5 hPa 0,0 l/m 0 min 2 min 11 W/m 12,9 km/h (3 Bft) 95,74 %
21.06.2021 05:52 17,4 C 16,7 C 15,6 C 99 % 1003,6 hPa 0,2 l/m 0 min 2 min 12 W/m 19,3 km/h (3 Bft) 95,45 %
21.06.2021 05:54 17,3 C 16,1 C 15,6 C 99 % 1003,6 hPa 0,0 l/m 0 min 2 min 12 W/m 25,7 km/h (4 Bft) 96,00 %
21.06.2021 05:56 17,2 C 16,1 C 15,6 C 99 % 1003,6 hPa 0,0 l/m 0 min 2 min 14 W/m 12,9 km/h (3 Bft) 95,74 %
21.06.2021 05:58 17,1 C 16,1 C 15,6 C 99 % 1003,6 hPa 0,0 l/m 0 min 0 min 14 W/m 25,7 km/h (4 Bft) 95,45 %
21.06.2021 06:00 17,1 C 16,1 C 15,6 C 99 % 1003,6 hPa 0,0 l/m 0 min 0 min 14 W/m 25,7 km/h (4 Bft) 91,84 %
21.06.2021 06:02 17,0 C 16,1 C 15,6 C 99 % 1003,6 hPa 0,0 l/m 0 min 0 min 14 W/m 25,7 km/h (4 Bft) 95,24 %
21.06.2021 06:04 17,0 C 16,1 C 15,6 C 99 % 1003,7 hPa 0,0 l/m 0 min 0 min 13 W/m 32,2 km/h (5 Bft) 93,88 %
21.06.2021 06:08 17,0 C 16,1 C 15,6 C 99 % 1003,7 hPa 0,0 l/m 0 min 0 min 12 W/m 16,1 km/h (3 Bft) 97,94 %
21.06.2021 06:10 17,0 C 16,1 C 15,6 C 99 % 1003,6 hPa 0,0 l/m 0 min 0 min 13 W/m 22,5 km/h (4 Bft) 93,48 %
21.06.2021 06:12 16,9 C 16,1 C 15,6 C 99 % 1003,8 hPa 0,0 l/m 0 min 0 min 12 W/m 16,1 km/h (3 Bft) 95,24 %
21.06.2021 06:14 16,9 C 16,1 C 15,6 C 99 % 1003,8 hPa 0,0 l/m 0 min 0 min 11 W/m 12,9 km/h (3 Bft) 98,08 %
21.06.2021 06:16 16,8 C 16,1 C 15,0 C 99 % 1003,9 hPa 0,0 l/m 0 min 0 min 11 W/m 25,7 km/h (4 Bft) 97,87 %
21.06.2021 06:18 16,8 C 15,6 C 15,0 C 99 % 1003,9 hPa 0,0 l/m 0 min 0 min 11 W/m 16,1 km/h (3 Bft) 95,74 %
21.06.2021 06:20 16,7 C 15,6 C 15,0 C 99 % 1003,9 hPa 0,0 l/m 0 min 0 min 10 W/m 22,5 km/h (4 Bft) 97,67 %
21.06.2021 06:22 16,6 C 15,6 C 15,0 C 99 % 1003,9 hPa 0,0 l/m 0 min 0 min 9 W/m 22,5 km/h (4 Bft) 97,83 %
21.06.2021 06:24 16,6 C 15,6 C 15,0 C 99 % 1003,9 hPa 0,0 l/m 0 min 0 min 9 W/m 16,1 km/h (3 Bft) 98,00 %
21.06.2021 06:26 16,5 C 15,6 C 15,0 C 99 % 1003,8 hPa 0,0 l/m 0 min 0 min 9 W/m 19,3 km/h (3 Bft) 95,83 %
21.06.2021 06:28 16,5 C 15,6 C 15,0 C 99 % 1003,8 hPa 0,0 l/m 0 min 0 min 9 W/m 12,9 km/h (3 Bft) 95,74 %
21.06.2021 06:30 16,5 C 15,6 C 15,0 C 99 % 1003,8 hPa 0,0 l/m 0 min 0 min 8 W/m 19,3 km/h (3 Bft) 97,67 %
21.06.2021 06:32 16,5 C 15,6 C 15,0 C 99 % 1003,8 hPa 0,0 l/m 0 min 0 min 7 W/m 16,1 km/h (3 Bft) 97,87 %
21.06.2021 06:34 16,5 C 15,6 C 15,0 C 99 % 1003,9 hPa 0,0 l/m 0 min 0 min 7 W/m 19,3 km/h (3 Bft) 97,96 %
21.06.2021 06:36 16,4 C 15,6 C 15,0 C 99 % 1003,8 hPa 0,0 l/m 0 min 0 min 7 W/m 12,9 km/h (3 Bft) 93,75 %
21.06.2021 06:38 16,4 C 15,6 C 15,0 C 99 % 1003,8 hPa 0,0 l/m 0 min 0 min 5 W/m 16,1 km/h (3 Bft) 97,87 %
21.06.2021 06:40 16,4 C 15,6 C 15,0 C 99 % 1003,9 hPa 0,0 l/m 0 min 0 min 7 W/m 19,3 km/h (3 Bft) 100,00 %
21.06.2021 06:42 16,4 C 15,6 C 15,0 C 99 % 1003,9 hPa 0,0 l/m 0 min 0 min 5 W/m 12,9 km/h (3 Bft) 100,00 %
21.06.2021 06:44 16,4 C 15,6 C 15,0 C 99 % 1004,0 hPa 0,0 l/m 0 min 0 min 5 W/m 16,1 km/h (3 Bft) 97,67 %
21.06.2021 06:46 16,4 C 15,6 C 15,0 C 99 % 1004,0 hPa 0,0 l/m 0 min 0 min 5 W/m 16,1 km/h (3 Bft) 100,00 %
21.06.2021 06:48 16,3 C 15,6 C 15,0 C 99 % 1004,0 hPa 0,0 l/m 0 min 0 min 5 W/m 16,1 km/h (3 Bft) 100,00 %
21.06.2021 06:50 16,3 C 15,6 C 15,0 C 99 % 1003,9 hPa 0,0 l/m 0 min 0 min 5 W/m 16,1 km/h (3 Bft) 100,00 %
21.06.2021 06:52 16,3 C 15,6 C 15,0 C 99 % 1003,9 hPa 0,0 l/m 0 min 0 min 7 W/m 22,5 km/h (4 Bft) 95,83 %
21.06.2021 06:54 16,3 C 15,6 C 15,0 C 99 % 1004,0 hPa 0,0 l/m 0 min 0 min 7 W/m 12,9 km/h (3 Bft) 100,00 %
21.06.2021 06:56 16,3 C 15,6 C 15,0 C 99 % 1004,0 hPa 0,0 l/m 0 min 0 min 7 W/m 22,5 km/h (4 Bft) 100,00 %
21.06.2021 06:58 16,3 C 15,6 C 15,0 C 99 % 1004,0 hPa 0,0 l/m 0 min 0 min 8 W/m 19,3 km/h (3 Bft) 100,00 %
21.06.2021 07:00 16,3 C 15,6 C 15,0 C 99 % 1004,0 hPa 0,0 l/m 0 min 0 min 9 W/m 16,1 km/h (3 Bft) 100,00 %
21.06.2021 07:02 16,2 C 15,6 C 15,0 C 99 % 1004,0 hPa 0,0 l/m 0 min 0 min 9 W/m 16,1 km/h (3 Bft) 100,00 %
21.06.2021 07:04 16,2 C 15,6 C 15,0 C 99 % 1004,0 hPa 0,0 l/m 0 min 0 min 8 W/m 16,1 km/h (3 Bft) 100,00 %
21.06.2021 07:06 16,2 C 15,6 C 15,0 C 99 % 1004,0 hPa 0,0 l/m 0 min 0 min 7 W/m 22,5 km/h (4 Bft) 100,00 %
21.06.2021 07:08 16,1 C 15,6 C 15,0 C 99 % 1004,0 hPa 0,0 l/m 0 min 0 min 7 W/m 16,1 km/h (3 Bft) 100,00 %
21.06.2021 07:10 16,2 C 15,6 C 15,0 C 99 % 1004,0 hPa 0,0 l/m 0 min 0 min 7 W/m 12,9 km/h (3 Bft) 100,00 %
21.06.2021 07:12 16,1 C 15,6 C 15,0 C 99 % 1003,9 hPa 0,0 l/m 0 min 0 min 7 W/m 19,3 km/h (3 Bft) 100,00 %
21.06.2021 07:14 16,1 C 15,6 C 15,0 C 99 % 1003,9 hPa 0,0 l/m 0 min 0 min 9 W/m 16,1 km/h (3 Bft) 100,00 %
21.06.2021 07:16 16,1 C 15,6 C 15,0 C 99 % 1003,8 hPa 0,0 l/m 0 min 0 min 11 W/m 25,7 km/h (4 Bft) 100,00 %
21.06.2021 07:18 16,1 C 15,6 C 14,5 C 99 % 1003,8 hPa 0,0 l/m 0 min 0 min 15 W/m 16,1 km/h (3 Bft) 98,00 %
21.06.2021 07:20 16,1 C 15,6 C 15,0 C 99 % 1003,7 hPa 0,0 l/m 0 min 0 min 20 W/m 22,5 km/h (4 Bft) 100,00 %
21.06.2021 07:22 16,1 C 15,6 C 14,5 C 99 % 1003,7 hPa 0,0 l/m 0 min 0 min 27 W/m 25,7 km/h (4 Bft) 95,45 %
21.06.2021 07:24 16,0 C 15,6 C 14,5 C 99 % 1003,6 hPa 0,0 l/m 0 min 0 min 32 W/m 16,1 km/h (3 Bft) 96,00 %
21.06.2021 07:26 16,0 C 15,6 C 14,5 C 99 % 1003,6 hPa 0,0 l/m 0 min 0 min 32 W/m 12,9 km/h (3 Bft) 98,00 %
21.06.2021 07:28 16,0 C 15,6 C 14,5 C 99 % 1003,6 hPa 0,0 l/m 0 min 0 min 27 W/m 16,1 km/h (3 Bft) 100,00 %
21.06.2021 07:30 16,0 C 15,6 C 14,5 C 99 % 1003,7 hPa 0,0 l/m 0 min 0 min 22 W/m 22,5 km/h (4 Bft) 97,87 %
21.06.2021 07:32 16,0 C 15,6 C 14,5 C 99 % 1003,8 hPa 0,0 l/m 0 min 0 min 19 W/m 16,1 km/h (3 Bft) 96,36 %
21.06.2021 07:34 16,0 C 15,6 C 14,5 C 99 % 1003,8 hPa 0,0 l/m 0 min 0 min 18 W/m 16,1 km/h (3 Bft) 97,87 %
21.06.2021 07:36 15,9 C 15,6 C 14,5 C 99 % 1003,9 hPa 0,0 l/m 0 min 0 min 16 W/m 12,9 km/h (3 Bft) 96,00 %
21.06.2021 07:38 16,0 C 15,6 C 14,5 C 99 % 1003,9 hPa 0,0 l/m 0 min 0 min 18 W/m 12,9 km/h (3 Bft) 97,14 %
21.06.2021 07:40 16,0 C 15,6 C 14,5 C 99 % 1003,9 hPa 0,0 l/m 0 min 0 min 20 W/m 9,7 km/h (2 Bft) 98,11 %
21.06.2021 07:42 16,0 C 15,6 C 14,5 C 99 % 1003,9 hPa 0,0 l/m 0 min 0 min 23 W/m 6,4 km/h (2 Bft) 98,00 %
21.06.2021 07:44 16,0 C 15,6 C 15,0 C 99 % 1003,9 hPa 0,0 l/m 0 min 0 min 31 W/m 12,9 km/h (3 Bft) 97,83 %
21.06.2021 07:46 16,0 C 15,6 C 14,5 C 99 % 1004,0 hPa 0,0 l/m 0 min 0 min 30 W/m 19,3 km/h (3 Bft) 97,87 %
21.06.2021 07:48 16,0 C 15,6 C 15,0 C 99 % 1003,9 hPa 0,0 l/m 0 min 0 min 22 W/m 3,2 km/h (1 Bft) 95,74 %
21.06.2021 07:50 16,0 C 15,6 C 15,0 C 99 % 1004,0 hPa 0,0 l/m 0 min 0 min 24 W/m 9,7 km/h (2 Bft) 95,74 %
21.06.2021 07:52 16,0 C 15,6 C 15,0 C 99 % 1004,0 hPa 0,0 l/m 0 min 0 min 26 W/m 12,9 km/h (3 Bft) 97,87 %
21.06.2021 07:54 16,0 C 15,6 C 15,0 C 99 % 1004,0 hPa 0,0 l/m 0 min 0 min 26 W/m 12,9 km/h (3 Bft) 97,83 %
21.06.2021 07:56 16,0 C 15,6 C 14,5 C 99 % 1004,0 hPa 0,0 l/m 0 min 0 min 32 W/m 16,1 km/h (3 Bft) 97,87 %
21.06.2021 07:58 16,0 C 15,6 C 15,0 C 99 % 1003,9 hPa 0,0 l/m 0 min 0 min 46 W/m 16,1 km/h (3 Bft) 95,74 %
21.06.2021 08:00 16,0 C 15,6 C 15,0 C 99 % 1003,9 hPa 0,0 l/m 0 min 0 min 65 W/m 12,9 km/h (3 Bft) 95,74 %
21.06.2021 08:02 16,0 C 15,6 C 15,0 C 99 % 1004,0 hPa 0,0 l/m 0 min 0 min 70 W/m 12,9 km/h (3 Bft) 97,92 %
21.06.2021 08:04 16,0 C 15,6 C 15,0 C 99 % 1004,0 hPa 0,0 l/m 0 min 0 min 68 W/m 6,4 km/h (2 Bft) 95,74 %
21.06.2021 08:06 16,0 C 15,6 C 15,0 C 99 % 1004,0 hPa 0,0 l/m 0 min 0 min 59 W/m 9,7 km/h (2 Bft) 95,74 %
21.06.2021 08:08 16,0 C 15,6 C 14,5 C 99 % 1004,0 hPa 0,0 l/m 0 min 0 min 38 W/m 9,7 km/h (2 Bft) 95,65 %
21.06.2021 08:10 16,0 C 15,6 C 14,5 C 99 % 1004,1 hPa 0,0 l/m 0 min 0 min 32 W/m 9,7 km/h (2 Bft) 95,74 %
21.06.2021 08:12 15,9 C 15,6 C 14,5 C 99 % 1004,0 hPa 0,0 l/m 0 min 0 min 36 W/m 12,9 km/h (3 Bft) 93,62 %
21.06.2021 08:14 15,9 C 15,6 C 14,5 C 99 % 1004,1 hPa 0,0 l/m 0 min 0 min 41 W/m 16,1 km/h (3 Bft) 95,74 %
21.06.2021 08:16 15,9 C 15,6 C 14,5 C 99 % 1004,1 hPa 0,0 l/m 0 min 0 min 48 W/m 12,9 km/h (3 Bft) 91,49 %
21.06.2021 08:18 15,8 C 15,6 C 14,5 C 99 % 1004,1 hPa 0,0 l/m 0 min 0 min 61 W/m 22,5 km/h (4 Bft) 95,65 %
21.06.2021 08:20 15,8 C 15,6 C 14,5 C 99 % 1004,1 hPa 0,0 l/m 0 min 0 min 67 W/m 16,1 km/h (3 Bft) 95,74 %
21.06.2021 08:22 15,8 C 15,6 C 14,5 C 99 % 1004,2 hPa 0,0 l/m 0 min 0 min 54 W/m 12,9 km/h (3 Bft) 95,74 %
21.06.2021 08:24 15,8 C 15,6 C 14,5 C 99 % 1004,2 hPa 0,0 l/m 0 min 0 min 47 W/m 12,9 km/h (3 Bft) 95,74 %
21.06.2021 08:26 15,8 C 15,6 C 14,5 C 99 % 1004,2 hPa 0,0 l/m 0 min 0 min 47 W/m 16,1 km/h (3 Bft) 95,74 %
21.06.2021 08:28 15,8 C 15,6 C 14,5 C 99 % 1004,2 hPa 0,0 l/m 0 min 0 min 44 W/m 9,7 km/h (2 Bft) 95,74 %
21.06.2021 08:30 15,8 C 15,6 C 14,5 C 99 % 1004,2 hPa 0,0 l/m 0 min 0 min 38 W/m 3,2 km/h (1 Bft) 95,65 %
21.06.2021 08:32 15,8 C 15,6 C 14,5 C 99 % 1004,3 hPa 0,0 l/m 0 min 0 min 33 W/m 22,5 km/h (4 Bft) 95,74 %
21.06.2021 08:34 15,8 C 15,6 C 14,5 C 99 % 1004,3 hPa 0,0 l/m 0 min 0 min 33 W/m 12,9 km/h (3 Bft) 93,62 %
21.06.2021 08:36 15,7 C 15,0 C 14,5 C 99 % 1004,3 hPa 0,0 l/m 0 min 0 min 32 W/m 16,1 km/h (3 Bft) 95,74 %
21.06.2021 08:38 15,7 C 15,0 C 14,5 C 99 % 1004,4 hPa 0,0 l/m 0 min 0 min 28 W/m 9,7 km/h (2 Bft) 95,83 %
21.06.2021 08:40 15,6 C 15,0 C 14,5 C 99 % 1004,4 hPa 0,0 l/m 0 min 0 min 26 W/m 16,1 km/h (3 Bft) 93,62 %
21.06.2021 08:42 15,7 C 15,0 C 14,5 C 99 % 1004,4 hPa 0,0 l/m 0 min 0 min 22 W/m 12,9 km/h (3 Bft) 95,65 %
21.06.2021 08:44 15,6 C 15,0 C 14,5 C 99 % 1004,4 hPa 0,0 l/m 0 min 0 min 21 W/m 9,7 km/h (2 Bft) 95,74 %
21.06.2021 08:46 15,7 C 15,0 C 14,5 C 99 % 1004,5 hPa 0,0 l/m 0 min 0 min 24 W/m 9,7 km/h (2 Bft) 91,49 %
21.06.2021 08:48 15,7 C 15,6 C 14,5 C 99 % 1004,5 hPa 0,0 l/m 0 min 0 min 28 W/m 16,1 km/h (3 Bft) 97,87 %
21.06.2021 08:50 15,7 C 15,6 C 14,5 C 99 % 1004,5 hPa 0,0 l/m 0 min 0 min 34 W/m 19,3 km/h (3 Bft) 95,74 %
21.06.2021 08:52 15,6 C 15,0 C 14,5 C 99 % 1004,5 hPa 0,0 l/m 0 min 0 min 35 W/m 19,3 km/h (3 Bft) 93,62 %
21.06.2021 08:54 15,7 C 15,0 C 14,5 C 99 % 1004,5 hPa 0,0 l/m 0 min 0 min 38 W/m 9,7 km/h (2 Bft) 93,48 %
21.06.2021 08:56 15,7 C 15,0 C 14,5 C 99 % 1004,5 hPa 0,0 l/m 0 min 0 min 45 W/m 12,9 km/h (3 Bft) 95,74 %
21.06.2021 08:58 15,7 C 15,6 C 14,5 C 99 % 1004,5 hPa 0,0 l/m 0 min 0 min 47 W/m 3,2 km/h (1 Bft) 95,74 %
21.06.2021 09:00 15,7 C 15,6 C 14,5 C 99 % 1004,5 hPa 0,0 l/m 0 min 0 min 47 W/m 16,1 km/h (3 Bft) 93,62 %
21.06.2021 09:02 15,7 C 15,6 C 14,5 C 99 % 1004,6 hPa 0,0 l/m 0 min 0 min 48 W/m 6,4 km/h (2 Bft) 95,74 %
21.06.2021 09:04 15,7 C 15,6 C 14,5 C 99 % 1004,5 hPa 0,0 l/m 0 min 0 min 49 W/m 12,9 km/h (3 Bft) 95,74 %
21.06.2021 09:06 15,7 C 15,0 C 14,5 C 99 % 1004,5 hPa 0,0 l/m 0 min 0 min 49 W/m 16,1 km/h (3 Bft) 93,48 %
21.06.2021 09:08 15,7 C 15,0 C 14,5 C 99 % 1004,6 hPa 0,0 l/m 0 min 0 min 45 W/m 16,1 km/h (3 Bft) 95,74 %
21.06.2021 09:10 15,6 C 15,0 C 14,5 C 99 % 1004,6 hPa 0,0 l/m 0 min 0 min 39 W/m 6,4 km/h (2 Bft) 93,62 %
21.06.2021 09:12 15,6 C 15,0 C 14,5 C 99 % 1004,6 hPa 0,0 l/m 0 min 0 min 40 W/m 16,1 km/h (3 Bft) 93,62 %
21.06.2021 09:14 15,6 C 15,0 C 14,5 C 99 % 1004,6 hPa 0,0 l/m 0 min 0 min 39 W/m 12,9 km/h (3 Bft) 95,74 %
21.06.2021 09:16 15,6 C 15,0 C 14,5 C 99 % 1004,6 hPa 0,0 l/m 0 min 0 min 33 W/m 12,9 km/h (3 Bft) 95,65 %
21.06.2021 09:18 15,6 C 15,0 C 14,5 C 99 % 1004,7 hPa 0,0 l/m 0 min 0 min 33 W/m 9,7 km/h (2 Bft) 95,74 %
21.06.2021 09:20 15,6 C 15,0 C 14,5 C 99 % 1004,7 hPa 0,0 l/m 0 min 0 min 33 W/m 6,4 km/h (2 Bft) 95,74 %
21.06.2021 09:22 15,6 C 15,0 C 14,5 C 99 % 1004,7 hPa 0,0 l/m 0 min 0 min 36 W/m 16,1 km/h (3 Bft) 95,74 %
21.06.2021 09:24 15,6 C 15,0 C 14,5 C 99 % 1004,8 hPa 0,0 l/m 0 min 0 min 39 W/m 12,9 km/h (3 Bft) 97,87 %
21.06.2021 09:26 15,6 C 15,0 C 14,5 C 99 % 1004,8 hPa 0,0 l/m 0 min 0 min 36 W/m 6,4 km/h (2 Bft) 97,87 %
21.06.2021 09:28 15,6 C 15,0 C 14,5 C 99 % 1004,8 hPa 0,0 l/m 0 min 0 min 31 W/m 9,7 km/h (2 Bft) 93,48 %
21.06.2021 09:30 15,6 C 15,0 C 14,5 C 99 % 1005,0 hPa 0,0 l/m 0 min 0 min 27 W/m 12,9 km/h (3 Bft) 97,87 %
21.06.2021 09:32 15,5 C 15,0 C 14,5 C 99 % 1005,0 hPa 0,0 l/m 0 min 0 min 27 W/m 9,7 km/h (2 Bft) 97,87 %
21.06.2021 09:34 15,5 C 15,0 C 14,5 C 99 % 1004,9 hPa 0,0 l/m 0 min 0 min 32 W/m 12,9 km/h (3 Bft) 97,87 %
21.06.2021 09:36 15,5 C 15,0 C 14,5 C 99 % 1004,9 hPa 0,0 l/m 0 min 0 min 41 W/m 12,9 km/h (3 Bft) 97,87 %
21.06.2021 09:38 15,5 C 15,0 C 14,5 C 99 % 1004,9 hPa 0,0 l/m 0 min 0 min 50 W/m 19,3 km/h (3 Bft) 97,87 %
21.06.2021 09:40 15,5 C 15,0 C 14,5 C 99 % 1005,0 hPa 0,0 l/m 0 min 0 min 53 W/m 9,7 km/h (2 Bft) 97,87 %
21.06.2021 09:42 15,5 C 15,0 C 14,5 C 98 % 1005,0 hPa 0,0 l/m 0 min 0 min 52 W/m 9,7 km/h (2 Bft) 100,00 %
21.06.2021 09:44 15,5 C 15,0 C 14,5 C 98 % 1005,1 hPa 0,0 l/m 0 min 0 min 47 W/m 12,9 km/h (3 Bft) 97,87 %
21.06.2021 09:46 15,5 C 15,0 C 14,5 C 98 % 1005,0 hPa 0,0 l/m 0 min 0 min 47 W/m 12,9 km/h (3 Bft) 100,00 %
21.06.2021 09:48 15,5 C 15,0 C 14,5 C 98 % 1005,1 hPa 0,0 l/m 0 min 2 min 53 W/m 16,1 km/h (3 Bft) 100,00 %
21.06.2021 09:50 15,5 C 15,0 C 14,5 C 98 % 1005,1 hPa 0,0 l/m 0 min 2 min 60 W/m 9,7 km/h (2 Bft) 100,00 %
21.06.2021 09:52 15,5 C 15,0 C 14,5 C 98 % 1005,1 hPa 0,0 l/m 0 min 2 min 70 W/m 9,7 km/h (2 Bft) 100,00 %
21.06.2021 09:54 15,5 C 15,0 C 14,5 C 98 % 1005,1 hPa 0,0 l/m 0 min 0 min 71 W/m 19,3 km/h (3 Bft) 100,00 %
21.06.2021 09:56 15,5 C 15,0 C 14,5 C 98 % 1005,2 hPa 0,0 l/m 0 min 0 min 64 W/m 16,1 km/h (3 Bft) 100,00 %
21.06.2021 09:58 15,5 C 15,0 C 14,5 C 98 % 1005,2 hPa 0,0 l/m 0 min 0 min 60 W/m 12,9 km/h (3 Bft) 100,00 %
21.06.2021 10:00 15,4 C 15,0 C 14,5 C 98 % 1005,2 hPa 0,0 l/m 0 min 0 min 57 W/m 16,1 km/h (3 Bft) 100,00 %
21.06.2021 10:02 15,4 C 15,0 C 14,5 C 98 % 1005,2 hPa 0,0 l/m 0 min 0 min 66 W/m 19,3 km/h (3 Bft) 100,00 %
21.06.2021 10:04 15,4 C 15,0 C 14,5 C 98 % 1005,2 hPa 0,0 l/m 0 min 0 min 75 W/m 12,9 km/h (3 Bft) 100,00 %
21.06.2021 10:06 15,4 C 15,0 C 14,5 C 98 % 1005,2 hPa 0,0 l/m 0 min 0 min 76 W/m 9,7 km/h (2 Bft) 100,00 %
21.06.2021 10:08 15,4 C 15,0 C 14,5 C 98 % 1005,2 hPa 0,0 l/m 0 min 0 min 86 W/m 12,9 km/h (3 Bft) 100,00 %
21.06.2021 10:10 15,4 C 15,0 C 14,5 C 98 % 1005,2 hPa 0,0 l/m 0 min 0 min 111 W/m 9,7 km/h (2 Bft) 100,00 %
21.06.2021 10:12 15,4 C 15,6 C 15,0 C 98 % 1005,2 hPa 0,0 l/m 0 min 0 min 111 W/m 12,9 km/h (3 Bft) 100,00 %
21.06.2021 10:14 15,4 C 15,6 C 14,5 C 99 % 1005,2 hPa 0,0 l/m 0 min 0 min 112 W/m 22,5 km/h (4 Bft) 100,00 %
21.06.2021 10:16 15,4 C 15,6 C 14,5 C 99 % 1005,3 hPa 0,0 l/m 0 min 0 min 115 W/m 12,9 km/h (3 Bft) 100,00 %
21.06.2021 10:18 15,4 C 15,6 C 14,5 C 99 % 1005,2 hPa 0,0 l/m 0 min 0 min 125 W/m 12,9 km/h (3 Bft) 100,00 %
21.06.2021 10:20 15,4 C 15,6 C 14,5 C 99 % 1005,3 hPa 0,0 l/m 0 min 0 min 140 W/m 12,9 km/h (3 Bft) 97,87 %
21.06.2021 10:22 15,4 C 15,6 C 14,5 C 99 % 1005,2 hPa 0,0 l/m 0 min 0 min 156 W/m 12,9 km/h (3 Bft) 97,87 %
21.06.2021 10:24 15,5 C 15,6 C 14,5 C 99 % 1005,3 hPa 0,0 l/m 0 min 0 min 153 W/m 16,1 km/h (3 Bft) 100,00 %
21.06.2021 10:26 15,5 C 15,6 C 14,5 C 99 % 1005,3 hPa 0,0 l/m 0 min 0 min 139 W/m 16,1 km/h (3 Bft) 100,00 %
21.06.2021 10:28 15,5 C 15,6 C 14,5 C 99 % 1005,4 hPa 0,0 l/m 0 min 0 min 128 W/m 16,1 km/h (3 Bft) 100,00 %
21.06.2021 10:30 15,5 C 15,6 C 14,5 C 99 % 1005,3 hPa 0,0 l/m 0 min 0 min 138 W/m 16,1 km/h (3 Bft) 100,00 %
21.06.2021 10:32 15,4 C 15,6 C 14,5 C 99 % 1005,4 hPa 0,0 l/m 0 min 0 min 137 W/m 22,5 km/h (4 Bft) 100,00 %
21.06.2021 10:34 15,4 C 15,6 C 14,5 C 99 % 1005,4 hPa 0,0 l/m 0 min 0 min 141 W/m 12,9 km/h (3 Bft) 100,00 %
21.06.2021 10:36 15,4 C 15,6 C 14,5 C 99 % 1005,5 hPa 0,0 l/m 0 min 0 min 130 W/m 16,1 km/h (3 Bft) 97,87 %
21.06.2021 10:38 15,4 C 15,6 C 14,5 C 99 % 1005,6 hPa 0,0 l/m 0 min 0 min 112 W/m 16,1 km/h (3 Bft) 100,00 %
21.06.2021 10:40 15,4 C 15,6 C 14,5 C 99 % 1005,6 hPa 0,0 l/m 0 min 0 min 92 W/m 16,1 km/h (3 Bft) 97,83 %
21.06.2021 10:42 15,4 C 15,6 C 14,5 C 99 % 1005,6 hPa 0,0 l/m 0 min 0 min 90 W/m 12,9 km/h (3 Bft) 97,87 %
21.06.2021 10:44 15,4 C 15,0 C 14,5 C 99 % 1005,6 hPa 0,0 l/m 0 min 0 min 88 W/m 19,3 km/h (3 Bft) 100,00 %
21.06.2021 10:46 15,4 C 15,0 C 14,5 C 99 % 1005,6 hPa 0,0 l/m 0 min 0 min 92 W/m 12,9 km/h (3 Bft) 95,74 %
21.06.2021 10:48 15,3 C 15,0 C 14,5 C 99 % 1005,7 hPa 0,0 l/m 0 min 0 min 95 W/m 12,9 km/h (3 Bft) 100,00 %
21.06.2021 10:50 15,3 C 15,0 C 14,5 C 99 % 1005,7 hPa 0,0 l/m 0 min 0 min 123 W/m 16,1 km/h (3 Bft) 100,00 %
21.06.2021 10:52 15,3 C 15,6 C 14,5 C 99 % 1005,7 hPa 0,0 l/m 0 min 0 min 139 W/m 9,7 km/h (2 Bft) 97,87 %
21.06.2021 10:54 15,4 C 15,6 C 15,0 C 99 % 1005,8 hPa 0,0 l/m 0 min 0 min 166 W/m 6,4 km/h (2 Bft) 97,87 %
21.06.2021 10:56 15,4 C 15,6 C 15,0 C 99 % 1005,8 hPa 0,0 l/m 0 min 0 min 222 W/m 12,9 km/h (3 Bft) 97,87 %
21.06.2021 10:58 15,4 C 15,6 C 15,0 C 99 % 1005,8 hPa 0,0 l/m 0 min 0 min 182 W/m 19,3 km/h (3 Bft) 97,87 %
21.06.2021 11:00 15,5 C 15,6 C 15,0 C 99 % 1005,9 hPa 0,0 l/m 0 min 2 min 162 W/m 9,7 km/h (2 Bft) 95,74 %
21.06.2021 11:02 15,5 C 15,6 C 15,0 C 99 % 1005,9 hPa 0,0 l/m 0 min 0 min 144 W/m 12,9 km/h (3 Bft) 97,83 %
21.06.2021 11:04 15,5 C 15,6 C 14,5 C 99 % 1006,0 hPa 0,0 l/m 0 min 0 min 126 W/m 19,3 km/h (3 Bft) 97,87 %
21.06.2021 11:06 15,5 C 15,6 C 14,5 C 99 % 1006,0 hPa 0,0 l/m 0 min 0 min 130 W/m 6,4 km/h (2 Bft) 97,87 %
21.06.2021 11:08 15,5 C 15,6 C 15,0 C 99 % 1005,9 hPa 0,0 l/m 0 min 0 min 137 W/m 6,4 km/h (2 Bft) 97,14 %
21.06.2021 11:10 15,5 C 15,6 C 15,0 C 99 % 1006,0 hPa 0,0 l/m 0 min 0 min 132 W/m 12,9 km/h (3 Bft) 98,11 %
21.06.2021 11:12 15,4 C 15,6 C 14,5 C 99 % 1006,0 hPa 0,0 l/m 0 min 0 min 129 W/m 12,9 km/h (3 Bft) 97,87 %
21.06.2021 11:14 15,4 C 15,6 C 14,5 C 99 % 1006,0 hPa 0,0 l/m 0 min 0 min 144 W/m 16,1 km/h (3 Bft) 95,74 %
21.06.2021 11:16 15,3 C 15,0 C 14,5 C 99 % 1006,1 hPa 0,2 l/m 0 min 0 min 148 W/m 16,1 km/h (3 Bft) 97,50 %
21.06.2021 11:18 15,3 C 15,6 C 14,5 C 99 % 1006,1 hPa 0,0 l/m 0 min 0 min 140 W/m 12,9 km/h (3 Bft) 97,87 %
21.06.2021 11:20 15,4 C 15,6 C 14,5 C 99 % 1006,1 hPa 0,0 l/m 0 min 0 min 137 W/m 6,4 km/h (2 Bft) 97,87 %
21.06.2021 11:22 15,4 C 15,6 C 14,5 C 99 % 1006,1 hPa 0,0 l/m 0 min 0 min 137 W/m 19,3 km/h (3 Bft) 96,23 %
21.06.2021 11:24 15,4 C 15,6 C 14,5 C 99 % 1006,2 hPa 0,0 l/m 0 min 0 min 139 W/m 12,9 km/h (3 Bft) 97,87 %
21.06.2021 11:26 15,4 C 15,6 C 14,5 C 99 % 1006,3 hPa 0,0 l/m 0 min 0 min 121 W/m 16,1 km/h (3 Bft) 97,87 %
21.06.2021 11:28 15,4 C 15,6 C 14,5 C 99 % 1006,3 hPa 0,0 l/m 0 min 0 min 138 W/m 16,1 km/h (3 Bft) 97,83 %
21.06.2021 11:30 15,4 C 15,6 C 14,5 C 99 % 1006,3 hPa 0,0 l/m 0 min 0 min 118 W/m 9,7 km/h (2 Bft) 95,74 %
21.06.2021 11:32 15,4 C 15,6 C 14,5 C 99 % 1006,3 hPa 0,0 l/m 0 min 0 min 117 W/m 16,1 km/h (3 Bft) 97,56 %
21.06.2021 11:34 15,4 C 15,6 C 14,5 C 99 % 1006,4 hPa 0,0 l/m 0 min 0 min 126 W/m 6,4 km/h (2 Bft) 98,11 %
21.06.2021 11:36 15,3 C 15,0 C 14,5 C 99 % 1006,4 hPa 0,0 l/m 0 min 0 min 116 W/m 12,9 km/h (3 Bft) 95,74 %
21.06.2021 11:38 15,3 C 15,0 C 14,5 C 99 % 1006,5 hPa 0,0 l/m 0 min 0 min 111 W/m 12,9 km/h (3 Bft) 97,83 %
21.06.2021 11:40 15,3 C 15,6 C 15,0 C 99 % 1006,6 hPa 0,0 l/m 0 min 0 min 138 W/m 9,7 km/h (2 Bft) 100,00 %
21.06.2021 11:42 15,3 C 15,0 C 14,5 C 99 % 1006,7 hPa 0,0 l/m 0 min 0 min 116 W/m 12,9 km/h (3 Bft) 100,00 %
21.06.2021 11:44 15,3 C 15,0 C 14,5 C 99 % 1006,7 hPa 0,0 l/m 0 min 0 min 123 W/m 12,9 km/h (3 Bft) 97,87 %
21.06.2021 11:46 15,3 C 15,0 C 14,5 C 99 % 1006,7 hPa 0,0 l/m 0 min 0 min 135 W/m 16,1 km/h (3 Bft) 97,56 %
21.06.2021 11:48 15,3 C 15,0 C 14,5 C 99 % 1006,7 hPa 0,0 l/m 0 min 0 min 155 W/m 16,1 km/h (3 Bft) 96,23 %
21.06.2021 11:50 15,2 C 15,0 C 14,5 C 99 % 1006,8 hPa 0,0 l/m 0 min 0 min 186 W/m 12,9 km/h (3 Bft) 95,65 %
21.06.2021 11:52 15,2 C 15,0 C 14,5 C 99 % 1006,8 hPa 0,0 l/m 0 min 0 min 183 W/m 19,3 km/h (3 Bft) 97,87 %
21.06.2021 11:54 15,2 C 15,6 C 14,5 C 99 % 1006,8 hPa 0,0 l/m 0 min 0 min 218 W/m 19,3 km/h (3 Bft) 97,87 %
21.06.2021 11:56 15,2 C 15,6 C 14,5 C 99 % 1006,9 hPa 0,0 l/m 0 min 0 min 238 W/m 16,1 km/h (3 Bft) 97,87 %
21.06.2021 11:58 15,2 C 15,6 C 14,5 C 99 % 1006,9 hPa 0,0 l/m 0 min 0 min 252 W/m 19,3 km/h (3 Bft) 95,74 %
21.06.2021 12:00 15,3 C 15,6 C 15,0 C 99 % 1007,0 hPa 0,0 l/m 0 min 0 min 224 W/m 9,7 km/h (2 Bft) 97,87 %
21.06.2021 12:02 15,3 C 15,6 C 14,5 C 99 % 1006,9 hPa 0,0 l/m 0 min 0 min 225 W/m 16,1 km/h (3 Bft) 97,87 %
21.06.2021 12:04 15,4 C 15,6 C 14,5 C 99 % 1007,0 hPa 0,0 l/m 0 min 0 min 205 W/m 16,1 km/h (3 Bft) 97,87 %
21.06.2021 12:08 15,4 C 15,6 C 14,5 C 99 % 1007,0 hPa 0,0 l/m 0 min 0 min 264 W/m 19,3 km/h (3 Bft) 96,84 %
21.06.2021 12:10 15,4 C 16,1 C 15,0 C 99 % 1007,0 hPa 0,0 l/m 0 min 0 min 264 W/m 22,5 km/h (4 Bft) 97,87 %
21.06.2021 12:12 15,4 C 16,1 C 14,5 C 99 % 1007,1 hPa 0,0 l/m 0 min 0 min 289 W/m 19,3 km/h (3 Bft) 97,87 %
21.06.2021 12:14 15,3 C 16,1 C 14,5 C 99 % 1007,1 hPa 0,0 l/m 0 min 0 min 307 W/m 22,5 km/h (4 Bft) 97,83 %
21.06.2021 12:16 15,3 C 15,6 C 14,5 C 99 % 1007,1 hPa 0,0 l/m 0 min 0 min 281 W/m 29,0 km/h (5 Bft) 97,87 %
21.06.2021 12:18 15,3 C 16,1 C 14,5 C 99 % 1007,1 hPa 0,0 l/m 0 min 0 min 275 W/m 16,1 km/h (3 Bft) 97,87 %
21.06.2021 12:20 15,4 C 16,1 C 14,5 C 99 % 1007,2 hPa 0,0 l/m 0 min 0 min 299 W/m 32,2 km/h (5 Bft) 97,87 %
21.06.2021 12:22 15,3 C 16,1 C 14,5 C 99 % 1007,1 hPa 0,0 l/m 0 min 0 min 308 W/m 29,0 km/h (5 Bft) 95,74 %
21.06.2021 12:24 15,4 C 16,1 C 14,5 C 99 % 1007,2 hPa 0,0 l/m 0 min 0 min 388 W/m 19,3 km/h (3 Bft) 97,83 %
21.06.2021 12:26 15,5 C 16,7 C 15,0 C 99 % 1007,2 hPa 0,0 l/m 2 min 0 min 462 W/m 19,3 km/h (3 Bft) 97,87 %
21.06.2021 12:28 15,6 C 16,7 C 15,0 C 99 % 1007,3 hPa 0,0 l/m 2 min 0 min 497 W/m 41,8 km/h (6 Bft) 97,87 %
21.06.2021 12:30 15,6 C 16,7 C 15,0 C 99 % 1007,2 hPa 0,0 l/m 2 min 0 min 483 W/m 41,8 km/h (6 Bft) 97,87 %
21.06.2021 12:32 15,6 C 16,7 C 15,0 C 99 % 1007,4 hPa 0,0 l/m 0 min 0 min 412 W/m 32,2 km/h (5 Bft) 97,87 %
21.06.2021 12:34 15,6 C 16,7 C 15,0 C 99 % 1007,5 hPa 0,0 l/m 0 min 0 min 299 W/m 22,5 km/h (4 Bft) 97,87 %
21.06.2021 12:36 15,6 C 16,1 C 15,0 C 99 % 1007,5 hPa 0,0 l/m 0 min 0 min 310 W/m 25,7 km/h (4 Bft) 100,00 %
21.06.2021 12:38 15,6 C 16,7 C 15,0 C 99 % 1007,5 hPa 0,0 l/m 0 min 0 min 377 W/m 19,3 km/h (3 Bft) 100,00 %
21.06.2021 12:40 15,6 C 16,7 C 15,0 C 99 % 1007,5 hPa 0,0 l/m 0 min 0 min 290 W/m 19,3 km/h (3 Bft) 100,00 %
21.06.2021 12:42 15,7 C 16,1 C 15,0 C 99 % 1007,7 hPa 0,0 l/m 0 min 0 min 200 W/m 19,3 km/h (3 Bft) 97,87 %
21.06.2021 12:44 15,7 C 16,1 C 15,0 C 99 % 1007,7 hPa 0,0 l/m 0 min 0 min 202 W/m 16,1 km/h (3 Bft) 100,00 %
21.06.2021 12:46 15,8 C 16,1 C 15,0 C 98 % 1007,7 hPa 0,0 l/m 0 min 0 min 180 W/m 22,5 km/h (4 Bft) 100,00 %
21.06.2021 12:48 15,8 C 16,1 C 15,0 C 98 % 1007,8 hPa 0,0 l/m 0 min 0 min 209 W/m 19,3 km/h (3 Bft) 100,00 %
21.06.2021 12:50 15,8 C 16,7 C 15,0 C 98 % 1007,8 hPa 0,0 l/m 0 min 0 min 292 W/m 22,5 km/h (4 Bft) 100,00 %
21.06.2021 12:52 15,8 C 16,7 C 15,0 C 98 % 1007,8 hPa 0,0 l/m 0 min 0 min 229 W/m 16,1 km/h (3 Bft) 100,00 %
21.06.2021 12:54 15,8 C 16,7 C 15,0 C 98 % 1007,9 hPa 0,0 l/m 0 min 0 min 218 W/m 25,7 km/h (4 Bft) 100,00 %
21.06.2021 12:56 15,8 C 16,7 C 15,0 C 98 % 1007,9 hPa 0,0 l/m 0 min 0 min 272 W/m 32,2 km/h (5 Bft) 100,00 %
21.06.2021 12:58 15,8 C 16,7 C 15,0 C 98 % 1007,9 hPa 0,0 l/m 0 min 0 min 373 W/m 22,5 km/h (4 Bft) 100,00 %
21.06.2021 13:00 15,8 C 16,7 C 15,0 C 98 % 1008,0 hPa 0,0 l/m 2 min 0 min 463 W/m 22,5 km/h (4 Bft) 100,00 %
21.06.2021 13:02 15,9 C 17,2 C 15,6 C 98 % 1007,9 hPa 0,0 l/m 0 min 0 min 439 W/m 19,3 km/h (3 Bft) 100,00 %
21.06.2021 13:04 15,9 C 17,2 C 15,6 C 98 % 1007,9 hPa 0,0 l/m 0 min 0 min 403 W/m 16,1 km/h (3 Bft) 100,00 %
21.06.2021 13:06 16,1 C 17,8 C 15,6 C 98 % 1007,9 hPa 0,0 l/m 2 min 0 min 587 W/m 22,5 km/h (4 Bft) 97,87 %
21.06.2021 13:08 16,1 C 17,8 C 15,6 C 98 % 1007,9 hPa 0,0 l/m 0 min 0 min 396 W/m 16,1 km/h (3 Bft) 100,00 %
21.06.2021 13:10 16,3 C 17,8 C 15,6 C 98 % 1007,8 hPa 0,0 l/m 0 min 0 min 404 W/m 22,5 km/h (4 Bft) 97,87 %
21.06.2021 13:12 16,3 C 17,8 C 16,1 C 98 % 1007,9 hPa 0,0 l/m 2 min 0 min 460 W/m 19,3 km/h (3 Bft) 97,83 %
21.06.2021 13:14 16,3 C 18,9 C 16,7 C 98 % 1008,0 hPa 0,0 l/m 2 min 0 min 519 W/m 19,3 km/h (3 Bft) 100,00 %
21.06.2021 13:16 16,5 C 18,9 C 18,4 C 97 % 1008,1 hPa 0,0 l/m 2 min 0 min 561 W/m 22,5 km/h (4 Bft) 100,00 %
21.06.2021 13:18 16,6 C 19,4 C 18,4 C 97 % 1008,3 hPa 0,0 l/m 2 min 0 min 543 W/m 22,5 km/h (4 Bft) 100,00 %
21.06.2021 13:20 16,6 C 18,9 C 17,8 C 97 % 1008,5 hPa 0,0 l/m 0 min 0 min 418 W/m 22,5 km/h (4 Bft) 100,00 %
21.06.2021 13:22 16,8 C 18,9 C 17,3 C 97 % 1008,6 hPa 0,0 l/m 0 min 0 min 263 W/m 16,1 km/h (3 Bft) 100,00 %
21.06.2021 13:24 16,7 C 17,8 C 16,7 C 96 % 1008,6 hPa 0,0 l/m 0 min 0 min 152 W/m 16,1 km/h (3 Bft) 100,00 %
21.06.2021 13:26 16,6 C 17,2 C 16,1 C 95 % 1008,7 hPa 0,0 l/m 0 min 0 min 111 W/m 22,5 km/h (4 Bft) 100,00 %
21.06.2021 13:28 16,6 C 16,7 C 16,1 C 95 % 1008,7 hPa 0,0 l/m 0 min 0 min 128 W/m 16,1 km/h (3 Bft) 100,00 %
21.06.2021 13:30 16,5 C 16,7 C 16,1 C 94 % 1008,7 hPa 0,0 l/m 0 min 0 min 122 W/m 19,3 km/h (3 Bft) 97,87 %
21.06.2021 13:32 16,5 C 16,7 C 15,6 C 94 % 1008,8 hPa 0,0 l/m 0 min 0 min 120 W/m 12,9 km/h (3 Bft) 100,00 %
21.06.2021 13:34 16,5 C 16,7 C 15,6 C 94 % 1008,8 hPa 0,0 l/m 0 min 0 min 101 W/m 19,3 km/h (3 Bft) 97,87 %
21.06.2021 13:36 16,5 C 16,1 C 15,6 C 94 % 1008,8 hPa 0,0 l/m 0 min 0 min 97 W/m 25,7 km/h (4 Bft) 100,00 %
21.06.2021 13:38 16,4 C 16,1 C 15,6 C 94 % 1008,9 hPa 0,0 l/m 0 min 0 min 114 W/m 16,1 km/h (3 Bft) 100,00 %
21.06.2021 13:40 16,4 C 16,1 C 15,6 C 94 % 1009,0 hPa 0,0 l/m 0 min 0 min 111 W/m 22,5 km/h (4 Bft) 100,00 %
21.06.2021 13:42 16,4 C 16,1 C 15,6 C 94 % 1009,0 hPa 0,0 l/m 0 min 0 min 89 W/m 12,9 km/h (3 Bft) 97,87 %
21.06.2021 13:44 16,3 C 16,1 C 15,6 C 94 % 1009,1 hPa 0,0 l/m 0 min 0 min 91 W/m 16,1 km/h (3 Bft) 100,00 %
21.06.2021 13:46 16,3 C 16,1 C 15,6 C 94 % 1009,1 hPa 0,0 l/m 0 min 0 min 108 W/m 29,0 km/h (5 Bft) 100,00 %
21.06.2021 13:48 16,3 C 16,1 C 15,6 C 94 % 1009,1 hPa 0,0 l/m 0 min 0 min 130 W/m 22,5 km/h (4 Bft) 100,00 %
21.06.2021 13:50 16,3 C 16,1 C 15,6 C 93 % 1009,2 hPa 0,0 l/m 0 min 0 min 176 W/m 19,3 km/h (3 Bft) 97,87 %
21.06.2021 13:52 16,3 C 16,1 C 15,6 C 93 % 1009,2 hPa 0,0 l/m 0 min 0 min 184 W/m 16,1 km/h (3 Bft) 97,87 %
21.06.2021 13:54 16,3 C 16,7 C 15,6 C 93 % 1009,2 hPa 0,0 l/m 0 min 0 min 131 W/m 12,9 km/h (3 Bft) 100,00 %
21.06.2021 13:56 16,3 C 16,1 C 15,6 C 93 % 1009,3 hPa 0,0 l/m 0 min 0 min 110 W/m 9,7 km/h (2 Bft) 100,00 %
21.06.2021 13:58 16,3 C 16,1 C 15,6 C 93 % 1009,3 hPa 0,0 l/m 0 min 0 min 97 W/m 19,3 km/h (3 Bft) 97,83 %
21.06.2021 14:00 16,3 C 16,1 C 15,6 C 93 % 1009,3 hPa 0,0 l/m 0 min 0 min 91 W/m 25,7 km/h (4 Bft) 97,87 %
21.06.2021 14:02 16,3 C 16,1 C 15,6 C 93 % 1009,3 hPa 0,0 l/m 0 min 0 min 89 W/m 12,9 km/h (3 Bft) 95,83 %
21.06.2021 14:04 16,3 C 16,1 C 15,6 C 93 % 1009,3 hPa 0,0 l/m 0 min 0 min 107 W/m 19,3 km/h (3 Bft) 95,74 %
21.06.2021 14:06 16,3 C 16,1 C 15,6 C 93 % 1009,4 hPa 0,0 l/m 0 min 0 min 111 W/m 19,3 km/h (3 Bft) 97,87 %
21.06.2021 14:08 16,3 C 16,1 C 15,6 C 93 % 1009,4 hPa 0,0 l/m 0 min 0 min 110 W/m 9,7 km/h (2 Bft) 97,87 %
21.06.2021 14:10 16,3 C 16,1 C 15,6 C 93 % 1009,3 hPa 0,0 l/m 0 min 0 min 117 W/m 6,4 km/h (2 Bft) 95,65 %
21.06.2021 14:12 16,3 C 16,1 C 15,6 C 93 % 1009,4 hPa 0,0 l/m 0 min 0 min 122 W/m 12,9 km/h (3 Bft) 95,74 %
21.06.2021 14:14 16,3 C 16,1 C 15,6 C 93 % 1009,3 hPa 0,0 l/m 0 min 0 min 132 W/m 16,1 km/h (3 Bft) 95,74 %
21.06.2021 14:16 16,3 C 16,1 C 15,6 C 93 % 1009,4 hPa 0,0 l/m 0 min 0 min 140 W/m 12,9 km/h (3 Bft) 95,74 %
21.06.2021 14:18 16,2 C 16,1 C 15,6 C 93 % 1009,5 hPa 0,0 l/m 0 min 0 min 161 W/m 16,1 km/h (3 Bft) 89,36 %
21.06.2021 14:20 16,2 C 16,1 C 15,6 C 93 % 1009,5 hPa 0,0 l/m 0 min 0 min 150 W/m 12,9 km/h (3 Bft) 95,74 %
21.06.2021 14:22 16,1 C 16,1 C 15,6 C 93 % 1009,5 hPa 0,0 l/m 0 min 0 min 138 W/m 19,3 km/h (3 Bft) 95,65 %
21.06.2021 14:24 16,1 C 16,1 C 15,6 C 93 % 1009,5 hPa 0,0 l/m 0 min 0 min 155 W/m 16,1 km/h (3 Bft) 95,74 %
21.06.2021 14:26 16,1 C 16,1 C 15,6 C 93 % 1009,6 hPa 0,0 l/m 0 min 0 min 156 W/m 19,3 km/h (3 Bft) 95,74 %
21.06.2021 14:28 16,2 C 16,7 C 15,6 C 93 % 1009,7 hPa 0,0 l/m 0 min 0 min 164 W/m 6,4 km/h (2 Bft) 95,74 %
21.06.2021 14:30 16,2 C 16,7 C 15,6 C 93 % 1009,7 hPa 0,0 l/m 0 min 0 min 220 W/m 25,7 km/h (4 Bft) 95,74 %
21.06.2021 14:32 16,3 C 16,7 C 15,6 C 93 % 1009,7 hPa 0,0 l/m 0 min 0 min 283 W/m 16,1 km/h (3 Bft) 95,74 %
21.06.2021 14:34 16,3 C 17,2 C 16,1 C 93 % 1009,7 hPa 0,0 l/m 0 min 0 min 350 W/m 16,1 km/h (3 Bft) 93,48 %
21.06.2021 14:36 16,3 C 17,2 C 16,1 C 93 % 1009,8 hPa 0,0 l/m 0 min 0 min 306 W/m 19,3 km/h (3 Bft) 93,62 %
21.06.2021 14:38 16,4 C 17,2 C 16,1 C 93 % 1009,8 hPa 0,0 l/m 0 min 0 min 236 W/m 6,4 km/h (2 Bft) 95,74 %
21.06.2021 14:40 16,5 C 17,2 C 16,1 C 93 % 1009,8 hPa 0,0 l/m 0 min 0 min 200 W/m 16,1 km/h (3 Bft) 91,49 %
21.06.2021 14:42 16,5 C 17,2 C 16,7 C 93 % 1009,8 hPa 0,0 l/m 0 min 0 min 332 W/m 12,9 km/h (3 Bft) 93,62 %
21.06.2021 14:44 16,5 C 17,8 C 16,7 C 92 % 1009,9 hPa 0,0 l/m 0 min 0 min 382 W/m 16,1 km/h (3 Bft) 93,62 %
21.06.2021 14:46 16,6 C 17,8 C 16,7 C 92 % 1010,0 hPa 0,0 l/m 0 min 0 min 246 W/m 12,9 km/h (3 Bft) 93,48 %
21.06.2021 14:48 16,6 C 17,2 C 16,7 C 92 % 1010,0 hPa 0,0 l/m 0 min 0 min 142 W/m 16,1 km/h (3 Bft) 91,49 %
21.06.2021 14:50 16,6 C 16,7 C 16,1 C 92 % 1010,0 hPa 0,0 l/m 0 min 0 min 117 W/m 19,3 km/h (3 Bft) 91,49 %
21.06.2021 14:52 16,6 C 16,7 C 16,1 C 91 % 1010,1 hPa 0,0 l/m 0 min 0 min 112 W/m 22,5 km/h (4 Bft) 95,74 %
21.06.2021 14:54 16,5 C 16,7 C 15,6 C 91 % 1010,1 hPa 0,0 l/m 0 min 0 min 141 W/m 22,5 km/h (4 Bft) 95,74 %
21.06.2021 14:56 16,5 C 16,1 C 15,6 C 91 % 1010,2 hPa 0,0 l/m 0 min 0 min 174 W/m 25,7 km/h (4 Bft) 91,49 %
21.06.2021 14:58 16,5 C 16,7 C 15,6 C 91 % 1010,1 hPa 0,0 l/m 0 min 0 min 224 W/m 19,3 km/h (3 Bft) 93,48 %
21.06.2021 15:00 16,5 C 16,7 C 16,1 C 91 % 1010,1 hPa 0,0 l/m 0 min 0 min 283 W/m 22,5 km/h (4 Bft) 93,62 %
21.06.2021 15:02 16,5 C 17,2 C 16,1 C 91 % 1010,2 hPa 0,0 l/m 0 min 0 min 390 W/m 19,3 km/h (3 Bft) 95,74 %
21.06.2021 15:04 16,5 C 17,8 C 16,7 C 91 % 1010,3 hPa 0,0 l/m 0 min 0 min 423 W/m 16,1 km/h (3 Bft) 95,74 %
21.06.2021 15:06 16,6 C 17,8 C 16,7 C 91 % 1010,2 hPa 0,0 l/m 0 min 0 min 310 W/m 19,3 km/h (3 Bft) 95,74 %
21.06.2021 15:08 16,7 C 17,8 C 16,7 C 91 % 1010,2 hPa 0,0 l/m 0 min 0 min 230 W/m 32,2 km/h (5 Bft) 95,74 %
21.06.2021 15:10 16,8 C 17,8 C 16,1 C 91 % 1010,2 hPa 0,0 l/m 0 min 0 min 233 W/m 19,3 km/h (3 Bft) 93,75 %
21.06.2021 15:12 16,8 C 17,8 C 16,1 C 91 % 1010,2 hPa 0,0 l/m 0 min 0 min 284 W/m 22,5 km/h (4 Bft) 95,74 %
21.06.2021 15:14 16,8 C 17,8 C 16,1 C 91 % 1010,3 hPa 0,0 l/m 0 min 0 min 324 W/m 16,1 km/h (3 Bft) 93,62 %
21.06.2021 15:16 16,8 C 17,8 C 16,7 C 90 % 1010,3 hPa 0,0 l/m 0 min 0 min 287 W/m 16,1 km/h (3 Bft) 95,74 %
21.06.2021 15:18 16,8 C 17,8 C 16,7 C 90 % 1010,3 hPa 0,0 l/m 0 min 0 min 229 W/m 19,3 km/h (3 Bft) 95,74 %
21.06.2021 15:20 16,9 C 17,2 C 16,1 C 90 % 1010,3 hPa 0,0 l/m 0 min 0 min 204 W/m 16,1 km/h (3 Bft) 95,65 %
21.06.2021 15:22 16,9 C 17,2 C 16,1 C 90 % 1010,4 hPa 0,0 l/m 0 min 0 min 198 W/m 19,3 km/h (3 Bft) 97,87 %
21.06.2021 15:24 16,9 C 16,7 C 16,1 C 90 % 1010,4 hPa 0,0 l/m 0 min 0 min 197 W/m 22,5 km/h (4 Bft) 97,87 %
21.06.2021 15:26 16,7 C 16,7 C 15,6 C 90 % 1010,4 hPa 0,0 l/m 0 min 0 min 239 W/m 25,7 km/h (4 Bft) 97,87 %
21.06.2021 15:28 16,6 C 16,7 C 16,1 C 90 % 1010,5 hPa 0,0 l/m 0 min 0 min 269 W/m 12,9 km/h (3 Bft) 97,87 %
21.06.2021 15:30 16,6 C 16,7 C 16,1 C 90 % 1010,4 hPa 0,0 l/m 0 min 0 min 235 W/m 16,1 km/h (3 Bft) 97,87 %
21.06.2021 15:32 16,6 C 16,7 C 16,1 C 90 % 1010,5 hPa 0,0 l/m 0 min 0 min 249 W/m 22,5 km/h (4 Bft) 93,48 %
21.06.2021 15:34 16,6 C 17,2 C 16,1 C 90 % 1010,6 hPa 0,0 l/m 0 min 0 min 268 W/m 12,9 km/h (3 Bft) 97,87 %
21.06.2021 15:36 16,6 C 17,2 C 16,1 C 91 % 1010,6 hPa 0,0 l/m 0 min 0 min 326 W/m 19,3 km/h (3 Bft) 100,00 %
21.06.2021 15:38 16,8 C 17,8 C 16,7 C 91 % 1010,7 hPa 0,0 l/m 0 min 0 min 400 W/m 16,1 km/h (3 Bft) 100,00 %
21.06.2021 15:40 16,8 C 18,3 C 16,7 C 91 % 1010,6 hPa 0,0 l/m 2 min 0 min 471 W/m 16,1 km/h (3 Bft) 100,00 %
21.06.2021 15:42 16,9 C 19,4 C 16,7 C 91 % 1010,6 hPa 0,0 l/m 2 min 0 min 491 W/m 19,3 km/h (3 Bft) 100,00 %
21.06.2021 15:44 17,0 C 19,4 C 17,3 C 91 % 1010,6 hPa 0,0 l/m 2 min 0 min 494 W/m 25,7 km/h (4 Bft) 100,00 %
21.06.2021 15:46 17,2 C 19,4 C 17,3 C 90 % 1010,7 hPa 0,0 l/m 0 min 0 min 376 W/m 12,9 km/h (3 Bft) 97,87 %
21.06.2021 15:48 17,3 C 18,9 C 16,7 C 90 % 1010,7 hPa 0,0 l/m 0 min 0 min 245 W/m 35,4 km/h (5 Bft) 97,87 %
21.06.2021 15:50 17,3 C 18,3 C 16,7 C 89 % 1010,7 hPa 0,0 l/m 0 min 0 min 266 W/m 12,9 km/h (3 Bft) 100,00 %
21.06.2021 15:52 17,3 C 18,9 C 16,7 C 89 % 1010,7 hPa 0,0 l/m 0 min 0 min 374 W/m 16,1 km/h (3 Bft) 97,87 %
21.06.2021 15:54 17,4 C 20,0 C 16,7 C 89 % 1010,8 hPa 0,0 l/m 2 min 0 min 449 W/m 12,9 km/h (3 Bft) 100,00 %
21.06.2021 15:56 17,4 C 20,0 C 16,7 C 89 % 1010,8 hPa 0,0 l/m 2 min 0 min 977 W/m 25,7 km/h (4 Bft) 97,83 %
21.06.2021 15:58 17,5 C 20,6 C 16,7 C 88 % 1010,7 hPa 0,0 l/m 2 min 0 min 486 W/m 19,3 km/h (3 Bft) 100,00 %
21.06.2021 16:00 17,6 C 21,7 C 17,3 C 88 % 1010,7 hPa 0,0 l/m 2 min 0 min 692 W/m 19,3 km/h (3 Bft) 100,00 %
21.06.2021 16:02 17,7 C 21,1 C 17,3 C 88 % 1010,7 hPa 0,0 l/m 2 min 0 min 783 W/m 22,5 km/h (4 Bft) 91,49 %
21.06.2021 16:04 17,9 C 21,7 C 17,3 C 88 % 1010,7 hPa 0,0 l/m 2 min 0 min 572 W/m 25,7 km/h (4 Bft) 100,00 %
21.06.2021 16:06 18,0 C 20,6 C 17,8 C 87 % 1010,8 hPa 0,0 l/m 2 min 0 min 844 W/m 16,1 km/h (3 Bft) 100,00 %
21.06.2021 16:08 18,0 C 20,0 C 17,8 C 87 % 1010,8 hPa 0,0 l/m 2 min 0 min 403 W/m 25,7 km/h (4 Bft) 100,00 %
21.06.2021 16:10 18,0 C 19,4 C 17,3 C 86 % 1010,9 hPa 0,0 l/m 0 min 0 min 307 W/m 22,5 km/h (4 Bft) 100,00 %
21.06.2021 16:12 18,0 C 18,9 C 17,3 C 86 % 1010,9 hPa 0,0 l/m 0 min 0 min 262 W/m 16,1 km/h (3 Bft) 100,00 %
21.06.2021 16:14 18,0 C 18,9 C 17,3 C 86 % 1011,0 hPa 0,0 l/m 0 min 0 min 313 W/m 22,5 km/h (4 Bft) 100,00 %
21.06.2021 16:16 18,0 C 18,9 C 17,3 C 86 % 1010,9 hPa 0,0 l/m 0 min 0 min 341 W/m 22,5 km/h (4 Bft) 100,00 %
21.06.2021 16:18 17,8 C 18,3 C 16,7 C 85 % 1010,9 hPa 0,0 l/m 0 min 0 min 324 W/m 19,3 km/h (3 Bft) 100,00 %
21.06.2021 16:20 17,8 C 18,3 C 16,7 C 86 % 1010,9 hPa 0,0 l/m 0 min 0 min 357 W/m 19,3 km/h (3 Bft) 100,00 %
21.06.2021 16:22 17,8 C 18,9 C 16,7 C 86 % 1010,9 hPa 0,0 l/m 2 min 0 min 414 W/m 22,5 km/h (4 Bft) 100,00 %
21.06.2021 16:24 17,9 C 18,9 C 17,3 C 86 % 1010,9 hPa 0,0 l/m 0 min 0 min 348 W/m 16,1 km/h (3 Bft) 100,00 %
21.06.2021 16:26 17,9 C 18,3 C 16,7 C 86 % 1010,9 hPa 0,0 l/m 0 min 0 min 292 W/m 25,7 km/h (4 Bft) 100,00 %
21.06.2021 16:28 17,9 C 18,3 C 16,7 C 86 % 1010,8 hPa 0,0 l/m 0 min 0 min 251 W/m 25,7 km/h (4 Bft) 100,00 %
21.06.2021 16:30 17,9 C 18,3 C 16,7 C 86 % 1010,8 hPa 0,0 l/m 0 min 0 min 317 W/m 19,3 km/h (3 Bft) 100,00 %
21.06.2021 16:32 17,8 C 18,3 C 16,7 C 86 % 1010,8 hPa 0,0 l/m 0 min 0 min 296 W/m 19,3 km/h (3 Bft) 100,00 %
21.06.2021 16:34 17,8 C 18,3 C 16,7 C 86 % 1010,8 hPa 0,0 l/m 0 min 0 min 263 W/m 12,9 km/h (3 Bft) 100,00 %
21.06.2021 16:36 17,9 C 18,3 C 17,3 C 86 % 1010,8 hPa 0,0 l/m 0 min 0 min 247 W/m 16,1 km/h (3 Bft) 100,00 %
21.06.2021 16:38 17,9 C 18,3 C 16,7 C 86 % 1010,9 hPa 0,0 l/m 0 min 0 min 232 W/m 19,3 km/h (3 Bft) 100,00 %
21.06.2021 16:40 17,9 C 18,3 C 16,7 C 86 % 1010,8 hPa 0,0 l/m 0 min 0 min 284 W/m 19,3 km/h (3 Bft) 100,00 %
21.06.2021 16:42 17,9 C 18,3 C 16,7 C 86 % 1010,9 hPa 0,0 l/m 0 min 0 min 316 W/m 22,5 km/h (4 Bft) 100,00 %
21.06.2021 16:44 17,9 C 18,9 C 16,7 C 86 % 1011,0 hPa 0,0 l/m 0 min 0 min 301 W/m 12,9 km/h (3 Bft) 100,00 %
21.06.2021 16:46 17,9 C 18,9 C 16,7 C 87 % 1011,1 hPa 0,0 l/m 0 min 0 min 258 W/m 16,1 km/h (3 Bft) 100,00 %
21.06.2021 16:48 17,9 C 18,9 C 16,7 C 87 % 1011,1 hPa 0,0 l/m 0 min 0 min 263 W/m 22,5 km/h (4 Bft) 100,00 %
21.06.2021 16:50 18,0 C 18,3 C 16,7 C 87 % 1011,1 hPa 0,0 l/m 0 min 0 min 236 W/m 19,3 km/h (3 Bft) 100,00 %
21.06.2021 16:52 18,0 C 18,3 C 16,7 C 86 % 1011,0 hPa 0,0 l/m 0 min 0 min 256 W/m 16,1 km/h (3 Bft) 100,00 %
21.06.2021 16:54 17,9 C 18,3 C 16,7 C 86 % 1011,1 hPa 0,0 l/m 0 min 0 min 275 W/m 12,9 km/h (3 Bft) 100,00 %
21.06.2021 16:56 18,0 C 18,3 C 16,7 C 86 % 1011,1 hPa 0,0 l/m 0 min 0 min 231 W/m 19,3 km/h (3 Bft) 100,00 %
21.06.2021 16:58 18,0 C 18,3 C 16,7 C 86 % 1011,1 hPa 0,0 l/m 0 min 0 min 228 W/m 19,3 km/h (3 Bft) 100,00 %
21.06.2021 17:00 18,0 C 18,9 C 16,7 C 86 % 1011,1 hPa 0,0 l/m 0 min 0 min 299 W/m 16,1 km/h (3 Bft) 100,00 %
21.06.2021 17:02 18,1 C 21,1 C 17,3 C 87 % 1011,1 hPa 0,0 l/m 2 min 0 min 594 W/m 12,9 km/h (3 Bft) 97,87 %
21.06.2021 17:04 18,3 C 21,7 C 17,3 C 86 % 1011,1 hPa 0,0 l/m 2 min 0 min 869 W/m 12,9 km/h (3 Bft) 97,87 %
21.06.2021 17:06 18,5 C 21,1 C 17,8 C 86 % 1011,2 hPa 0,0 l/m 0 min 0 min 295 W/m 9,7 km/h (2 Bft) 100,00 %
21.06.2021 17:08 18,6 C 20,6 C 17,8 C 85 % 1011,2 hPa 0,0 l/m 0 min 0 min 291 W/m 16,1 km/h (3 Bft) 100,00 %
21.06.2021 17:10 18,6 C 20,0 C 17,8 C 84 % 1011,2 hPa 0,0 l/m 0 min 0 min 278 W/m 16,1 km/h (3 Bft) 100,00 %
21.06.2021 17:12 18,6 C 19,4 C 17,3 C 84 % 1011,3 hPa 0,0 l/m 0 min 0 min 263 W/m 12,9 km/h (3 Bft) 97,87 %
21.06.2021 17:14 18,6 C 18,9 C 17,3 C 83 % 1011,2 hPa 0,0 l/m 0 min 0 min 231 W/m 19,3 km/h (3 Bft) 95,74 %
21.06.2021 17:16 18,6 C 18,9 C 17,3 C 83 % 1011,3 hPa 0,0 l/m 0 min 0 min 172 W/m 16,1 km/h (3 Bft) 93,48 %
21.06.2021 17:18 18,6 C 18,9 C 16,7 C 84 % 1011,2 hPa 0,0 l/m 0 min 0 min 151 W/m 16,1 km/h (3 Bft) 97,87 %
21.06.2021 17:20 18,5 C 18,3 C 16,7 C 84 % 1011,2 hPa 0,0 l/m 0 min 0 min 159 W/m 19,3 km/h (3 Bft) 97,87 %
21.06.2021 17:22 18,5 C 18,3 C 16,7 C 83 % 1011,2 hPa 0,0 l/m 0 min 0 min 170 W/m 12,9 km/h (3 Bft) 95,74 %
21.06.2021 17:24 18,5 C 18,3 C 16,7 C 83 % 1011,3 hPa 0,0 l/m 0 min 0 min 202 W/m 16,1 km/h (3 Bft) 95,74 %
21.06.2021 17:26 18,5 C 18,3 C 16,7 C 84 % 1011,4 hPa 0,0 l/m 0 min 0 min 262 W/m 19,3 km/h (3 Bft) 95,74 %
21.06.2021 17:28 18,4 C 18,3 C 16,7 C 83 % 1011,3 hPa 0,0 l/m 0 min 0 min 251 W/m 19,3 km/h (3 Bft) 93,48 %
21.06.2021 17:30 18,4 C 18,3 C 16,7 C 84 % 1011,4 hPa 0,0 l/m 0 min 0 min 205 W/m 12,9 km/h (3 Bft) 95,74 %
21.06.2021 17:32 18,4 C 18,3 C 16,7 C 84 % 1011,3 hPa 0,0 l/m 0 min 0 min 180 W/m 9,7 km/h (2 Bft) 91,49 %
21.06.2021 17:34 18,4 C 18,3 C 16,7 C 84 % 1011,3 hPa 0,0 l/m 0 min 0 min 140 W/m 19,3 km/h (3 Bft) 93,62 %
21.06.2021 17:36 18,4 C 18,3 C 16,7 C 83 % 1011,4 hPa 0,0 l/m 0 min 0 min 128 W/m 19,3 km/h (3 Bft) 93,62 %
21.06.2021 17:38 18,3 C 18,3 C 16,7 C 83 % 1011,4 hPa 0,0 l/m 0 min 0 min 156 W/m 16,1 km/h (3 Bft) 93,62 %
21.06.2021 17:40 18,3 C 18,3 C 16,7 C 84 % 1011,3 hPa 0,0 l/m 0 min 0 min 205 W/m 12,9 km/h (3 Bft) 97,14 %
21.06.2021 17:42 18,3 C 18,3 C 16,7 C 84 % 1011,3 hPa 0,0 l/m 0 min 0 min 238 W/m 16,1 km/h (3 Bft) 93,62 %
21.06.2021 17:44 18,3 C 18,9 C 16,7 C 84 % 1011,4 hPa 0,0 l/m 0 min 0 min 245 W/m 9,7 km/h (2 Bft) 93,48 %
21.06.2021 17:46 18,3 C 18,9 C 16,7 C 84 % 1011,4 hPa 0,0 l/m 0 min 0 min 247 W/m 12,9 km/h (3 Bft) 95,74 %
21.06.2021 17:48 18,3 C 18,9 C 16,7 C 84 % 1011,5 hPa 0,0 l/m 0 min 0 min 230 W/m 19,3 km/h (3 Bft) 95,74 %
21.06.2021 17:50 18,3 C 18,9 C 16,7 C 83 % 1011,5 hPa 0,0 l/m 0 min 0 min 198 W/m 16,1 km/h (3 Bft) 95,74 %
21.06.2021 17:52 18,3 C 18,9 C 16,7 C 83 % 1011,6 hPa 0,0 l/m 0 min 0 min 199 W/m 6,4 km/h (2 Bft) 95,74 %
21.06.2021 17:54 18,3 C 18,9 C 16,7 C 83 % 1011,6 hPa 0,0 l/m 0 min 0 min 201 W/m 9,7 km/h (2 Bft) 95,65 %
21.06.2021 17:56 18,3 C 18,9 C 16,7 C 84 % 1011,5 hPa 0,0 l/m 0 min 0 min 188 W/m 6,4 km/h (2 Bft) 93,62 %
21.06.2021 17:58 18,4 C 18,9 C 16,7 C 84 % 1011,5 hPa 0,0 l/m 0 min 0 min 160 W/m 6,4 km/h (2 Bft) 97,87 %
21.06.2021 18:00 18,4 C 18,9 C 16,7 C 84 % 1011,5 hPa 0,0 l/m 0 min 0 min 134 W/m 9,7 km/h (2 Bft) 97,87 %
21.06.2021 18:02 18,4 C 18,9 C 16,7 C 84 % 1011,5 hPa 0,0 l/m 0 min 0 min 125 W/m 12,9 km/h (3 Bft) 97,87 %
21.06.2021 18:04 18,4 C 18,9 C 16,7 C 84 % 1011,4 hPa 0,0 l/m 0 min 0 min 149 W/m 12,9 km/h (3 Bft) 97,87 %
21.06.2021 18:08 18,4 C 20,6 C 16,7 C 84 % 1011,3 hPa 0,0 l/m 0 min 0 min 229 W/m 16,1 km/h (3 Bft) 95,70 %
21.06.2021 18:10 18,4 C 22,2 C 17,3 C 84 % 1011,3 hPa 0,0 l/m 2 min 0 min 447 W/m 12,9 km/h (3 Bft) 97,87 %
21.06.2021 18:12 18,5 C 22,8 C 17,8 C 84 % 1011,3 hPa 0,0 l/m 2 min 0 min 577 W/m 9,7 km/h (2 Bft) 97,87 %
21.06.2021 18:14 18,7 C 23,3 C 17,8 C 84 % 1011,3 hPa 0,0 l/m 0 min 0 min 199 W/m 6,4 km/h (2 Bft) 95,74 %
21.06.2021 18:16 18,9 C 23,9 C 17,8 C 84 % 1011,4 hPa 0,0 l/m 0 min 0 min 246 W/m 6,4 km/h (2 Bft) 100,00 %
21.06.2021 18:18 19,0 C 23,9 C 18,4 C 84 % 1011,4 hPa 0,0 l/m 2 min 0 min 624 W/m 6,4 km/h (2 Bft) 100,00 %
21.06.2021 18:20 19,1 C 22,2 C 18,4 C 83 % 1011,4 hPa 0,0 l/m 0 min 0 min 220 W/m 6,4 km/h (2 Bft) 100,00 %
21.06.2021 18:22 19,2 C 21,7 C 18,4 C 83 % 1011,4 hPa 0,0 l/m 0 min 0 min 216 W/m 6,4 km/h (2 Bft) 97,87 %
21.06.2021 18:24 19,2 C 21,1 C 17,8 C 82 % 1011,4 hPa 0,0 l/m 0 min 0 min 200 W/m 16,1 km/h (3 Bft) 95,74 %
21.06.2021 18:26 19,2 C 20,6 C 17,8 C 81 % 1011,4 hPa 0,0 l/m 0 min 0 min 177 W/m 9,7 km/h (2 Bft) 97,87 %
21.06.2021 18:28 19,2 C 19,4 C 17,3 C 81 % 1011,5 hPa 0,0 l/m 0 min 0 min 135 W/m 12,9 km/h (3 Bft) 95,74 %
21.06.2021 18:30 19,2 C 20,6 C 17,3 C 81 % 1011,5 hPa 0,0 l/m 0 min 0 min 173 W/m 9,7 km/h (2 Bft) 97,83 %
21.06.2021 18:32 19,2 C 20,6 C 17,3 C 81 % 1011,5 hPa 0,0 l/m 0 min 0 min 186 W/m 9,7 km/h (2 Bft) 97,87 %
21.06.2021 18:34 19,2 C 20,6 C 17,3 C 81 % 1011,5 hPa 0,0 l/m 0 min 0 min 210 W/m 12,9 km/h (3 Bft) 97,87 %
21.06.2021 18:36 19,2 C 20,0 C 17,3 C 81 % 1011,5 hPa 0,0 l/m 0 min 0 min 208 W/m 9,7 km/h (2 Bft) 95,74 %
21.06.2021 18:38 19,1 C 19,4 C 17,3 C 80 % 1011,5 hPa 0,0 l/m 0 min 0 min 194 W/m 12,9 km/h (3 Bft) 98,11 %
21.06.2021 18:40 19,1 C 19,4 C 17,3 C 80 % 1011,5 hPa 0,0 l/m 0 min 0 min 175 W/m 16,1 km/h (3 Bft) 97,83 %
21.06.2021 18:42 19,1 C 19,4 C 17,3 C 80 % 1011,5 hPa 0,0 l/m 0 min 0 min 170 W/m 9,7 km/h (2 Bft) 97,87 %
21.06.2021 18:44 19,1 C 19,4 C 17,3 C 80 % 1011,5 hPa 0,0 l/m 0 min 0 min 159 W/m 9,7 km/h (2 Bft) 97,87 %
21.06.2021 18:46 19,0 C 18,9 C 16,7 C 81 % 1011,6 hPa 0,0 l/m 0 min 0 min 143 W/m 9,7 km/h (2 Bft) 97,56 %
21.06.2021 18:48 19,0 C 18,9 C 16,7 C 81 % 1011,6 hPa 0,0 l/m 0 min 0 min 124 W/m 6,4 km/h (2 Bft) 97,87 %
21.06.2021 18:50 19,0 C 18,9 C 16,7 C 81 % 1011,6 hPa 0,0 l/m 0 min 0 min 111 W/m 6,4 km/h (2 Bft) 95,74 %
21.06.2021 18:52 18,9 C 18,9 C 16,7 C 82 % 1011,6 hPa 0,0 l/m 0 min 0 min 101 W/m 6,4 km/h (2 Bft) 98,08 %
21.06.2021 18:54 18,8 C 18,3 C 16,7 C 82 % 1011,6 hPa 0,0 l/m 0 min 0 min 103 W/m 6,4 km/h (2 Bft) 97,87 %
21.06.2021 18:56 18,8 C 18,9 C 16,1 C 82 % 1011,6 hPa 0,0 l/m 0 min 0 min 131 W/m 6,4 km/h (2 Bft) 97,87 %
21.06.2021 18:58 18,7 C 18,3 C 16,7 C 83 % 1011,6 hPa 0,0 l/m 0 min 0 min 103 W/m 16,1 km/h (3 Bft) 97,87 %
21.06.2021 19:00 18,6 C 18,3 C 16,1 C 83 % 1011,5 hPa 0,0 l/m 0 min 0 min 121 W/m 16,1 km/h (3 Bft) 97,87 %
21.06.2021 19:02 18,6 C 18,9 C 16,7 C 83 % 1011,5 hPa 0,0 l/m 0 min 0 min 145 W/m 16,1 km/h (3 Bft) 97,56 %
21.06.2021 19:04 18,6 C 20,0 C 17,3 C 83 % 1011,5 hPa 0,0 l/m 0 min 0 min 186 W/m 3,2 km/h (1 Bft) 97,87 %
21.06.2021 19:06 18,6 C 20,0 C 17,3 C 83 % 1011,4 hPa 0,0 l/m 2 min 0 min 243 W/m 12,9 km/h (3 Bft) 97,83 %
21.06.2021 19:08 18,8 C 20,6 C 17,3 C 83 % 1011,5 hPa 0,0 l/m 2 min 0 min 239 W/m 16,1 km/h (3 Bft) 98,11 %
21.06.2021 19:10 18,8 C 20,0 C 17,3 C 83 % 1011,4 hPa 0,0 l/m 2 min 0 min 247 W/m 19,3 km/h (3 Bft) 97,87 %
21.06.2021 19:12 18,9 C 20,6 C 17,8 C 82 % 1011,5 hPa 0,0 l/m 2 min 0 min 241 W/m 16,1 km/h (3 Bft) 97,87 %
21.06.2021 19:14 18,9 C 20,0 C 17,3 C 82 % 1011,5 hPa 0,0 l/m 2 min 0 min 299 W/m 16,1 km/h (3 Bft) 95,65 %
21.06.2021 19:16 18,9 C 20,0 C 17,3 C 82 % 1011,7 hPa 0,0 l/m 2 min 0 min 202 W/m 12,9 km/h (3 Bft) 97,56 %
21.06.2021 19:18 19,0 C 19,4 C 17,3 C 81 % 1011,7 hPa 0,0 l/m 0 min 0 min 171 W/m 19,3 km/h (3 Bft) 95,74 %
21.06.2021 19:20 18,9 C 19,4 C 17,3 C 81 % 1011,8 hPa 0,0 l/m 0 min 0 min 146 W/m 22,5 km/h (4 Bft) 95,74 %
21.06.2021 19:22 18,9 C 18,9 C 16,7 C 81 % 1011,8 hPa 0,0 l/m 0 min 0 min 137 W/m 12,9 km/h (3 Bft) 95,74 %
21.06.2021 19:24 18,9 C 18,9 C 16,7 C 81 % 1011,7 hPa 0,0 l/m 0 min 0 min 140 W/m 12,9 km/h (3 Bft) 97,87 %
21.06.2021 19:26 18,8 C 18,3 C 16,7 C 81 % 1011,7 hPa 0,0 l/m 0 min 0 min 153 W/m 16,1 km/h (3 Bft) 95,74 %
21.06.2021 19:28 18,8 C 18,3 C 16,7 C 81 % 1011,6 hPa 0,0 l/m 0 min 0 min 166 W/m 16,1 km/h (3 Bft) 97,83 %
21.06.2021 19:30 18,8 C 18,9 C 16,7 C 81 % 1011,6 hPa 0,0 l/m 2 min 0 min 189 W/m 9,7 km/h (2 Bft) 97,87 %
21.06.2021 19:32 18,8 C 18,9 C 16,7 C 81 % 1011,6 hPa 0,0 l/m 2 min 0 min 194 W/m 19,3 km/h (3 Bft) 100,00 %
21.06.2021 19:34 18,7 C 18,3 C 16,7 C 81 % 1011,6 hPa 0,0 l/m 2 min 0 min 189 W/m 19,3 km/h (3 Bft) 100,00 %
21.06.2021 19:36 18,6 C 18,3 C 16,1 C 81 % 1011,6 hPa 0,0 l/m 0 min 0 min 159 W/m 16,1 km/h (3 Bft) 97,87 %
21.06.2021 19:38 18,5 C 18,3 C 16,1 C 81 % 1011,6 hPa 0,0 l/m 0 min 0 min 151 W/m 19,3 km/h (3 Bft) 100,00 %
21.06.2021 19:40 18,5 C 18,3 C 16,1 C 81 % 1011,6 hPa 0,0 l/m 0 min 0 min 142 W/m 16,1 km/h (3 Bft) 97,87 %
21.06.2021 19:42 18,4 C 18,3 C 16,1 C 82 % 1011,6 hPa 0,0 l/m 0 min 0 min 115 W/m 19,3 km/h (3 Bft) 100,00 %
21.06.2021 19:44 18,3 C 17,8 C 16,1 C 81 % 1011,5 hPa 0,0 l/m 0 min 0 min 93 W/m 12,9 km/h (3 Bft) 100,00 %
21.06.2021 19:46 18,2 C 17,8 C 16,1 C 82 % 1011,6 hPa 0,0 l/m 0 min 0 min 86 W/m 9,7 km/h (2 Bft) 100,00 %
21.06.2021 19:48 18,1 C 17,8 C 15,6 C 82 % 1011,5 hPa 0,0 l/m 0 min 0 min 83 W/m 12,9 km/h (3 Bft) 100,00 %
21.06.2021 19:50 18,0 C 17,8 C 15,6 C 82 % 1011,6 hPa 0,0 l/m 0 min 0 min 81 W/m 12,9 km/h (3 Bft) 93,62 %
21.06.2021 19:52 18,0 C 17,2 C 15,6 C 82 % 1011,6 hPa 0,0 l/m 0 min 0 min 72 W/m 16,1 km/h (3 Bft) 97,83 %
21.06.2021 19:54 17,9 C 17,2 C 15,6 C 83 % 1011,6 hPa 0,0 l/m 0 min 0 min 74 W/m 16,1 km/h (3 Bft) 97,87 %
21.06.2021 19:56 17,9 C 17,2 C 15,6 C 83 % 1011,7 hPa 0,0 l/m 0 min 0 min 79 W/m 19,3 km/h (3 Bft) 95,74 %
21.06.2021 19:58 17,8 C 17,2 C 15,6 C 84 % 1011,7 hPa 0,0 l/m 0 min 0 min 84 W/m 29,0 km/h (5 Bft) 97,87 %
21.06.2021 20:00 17,7 C 17,2 C 15,6 C 84 % 1011,7 hPa 0,0 l/m 0 min 0 min 84 W/m 22,5 km/h (4 Bft) 97,87 %
21.06.2021 20:02 17,6 C 16,7 C 15,0 C 84 % 1011,7 hPa 0,0 l/m 0 min 0 min 84 W/m 16,1 km/h (3 Bft) 98,08 %
21.06.2021 20:04 17,5 C 16,7 C 15,0 C 84 % 1011,6 hPa 0,0 l/m 0 min 0 min 86 W/m 22,5 km/h (4 Bft) 98,00 %
21.06.2021 20:06 17,4 C 16,7 C 15,0 C 85 % 1011,7 hPa 0,0 l/m 0 min 0 min 82 W/m 19,3 km/h (3 Bft) 97,87 %
21.06.2021 20:08 17,4 C 16,7 C 15,0 C 85 % 1011,7 hPa 0,0 l/m 0 min 0 min 79 W/m 22,5 km/h (4 Bft) 97,87 %
21.06.2021 20:10 17,3 C 16,7 C 15,0 C 85 % 1011,9 hPa 0,0 l/m 0 min 0 min 79 W/m 16,1 km/h (3 Bft) 93,62 %
21.06.2021 20:12 17,3 C 16,7 C 15,0 C 85 % 1011,9 hPa 0,0 l/m 0 min 0 min 80 W/m 16,1 km/h (3 Bft) 97,83 %
21.06.2021 20:14 17,2 C 16,7 C 15,0 C 85 % 1011,9 hPa 0,0 l/m 0 min 0 min 88 W/m 12,9 km/h (3 Bft) 95,74 %
21.06.2021 20:16 17,1 C 16,7 C 15,0 C 85 % 1011,9 hPa 0,0 l/m 0 min 0 min 97 W/m 12,9 km/h (3 Bft) 97,87 %
21.06.2021 20:18 17,1 C 16,7 C 15,0 C 86 % 1012,0 hPa 0,0 l/m 0 min 0 min 94 W/m 6,4 km/h (2 Bft) 97,87 %
21.06.2021 20:20 17,1 C 16,7 C 15,0 C 86 % 1011,9 hPa 0,0 l/m 0 min 0 min 84 W/m 19,3 km/h (3 Bft) 95,74 %
21.06.2021 20:22 17,1 C 16,7 C 15,0 C 86 % 1011,9 hPa 0,0 l/m 0 min 0 min 68 W/m 12,9 km/h (3 Bft) 93,62 %
21.06.2021 20:24 17,0 C 16,7 C 15,0 C 86 % 1011,9 hPa 0,0 l/m 0 min 0 min 55 W/m 12,9 km/h (3 Bft) 95,92 %
21.06.2021 20:26 17,0 C 16,7 C 15,0 C 86 % 1012,0 hPa 0,0 l/m 0 min 0 min 44 W/m 16,1 km/h (3 Bft) 93,62 %
21.06.2021 20:28 17,0 C 16,7 C 15,0 C 86 % 1012,1 hPa 0,0 l/m 0 min 0 min 38 W/m 12,9 km/h (3 Bft) 95,74 %
21.06.2021 20:30 16,9 C 16,7 C 15,0 C 86 % 1012,1 hPa 0,0 l/m 0 min 0 min 35 W/m 16,1 km/h (3 Bft) 97,14 %
21.06.2021 20:32 16,9 C 16,7 C 15,0 C 86 % 1012,2 hPa 0,0 l/m 0 min 0 min 33 W/m 12,9 km/h (3 Bft) 94,64 %
21.06.2021 20:34 16,9 C 16,1 C 15,0 C 86 % 1012,2 hPa 0,0 l/m 0 min 0 min 32 W/m 12,9 km/h (3 Bft) 95,74 %
21.06.2021 20:36 16,9 C 16,1 C 15,0 C 86 % 1012,3 hPa 0,0 l/m 0 min 0 min 32 W/m 19,3 km/h (3 Bft) 95,65 %
21.06.2021 20:38 16,9 C 16,1 C 15,0 C 86 % 1012,3 hPa 0,0 l/m 0 min 0 min 30 W/m 12,9 km/h (3 Bft) 97,87 %
21.06.2021 20:40 16,8 C 16,1 C 14,5 C 86 % 1012,4 hPa 0,0 l/m 0 min 0 min 26 W/m 16,1 km/h (3 Bft) 97,87 %
21.06.2021 20:42 16,8 C 16,1 C 14,5 C 86 % 1012,4 hPa 0,0 l/m 0 min 0 min 26 W/m 12,9 km/h (3 Bft) 97,87 %
21.06.2021 20:44 16,7 C 16,1 C 14,5 C 86 % 1012,5 hPa 0,0 l/m 0 min 0 min 25 W/m 16,1 km/h (3 Bft) 97,87 %
21.06.2021 20:46 16,6 C 16,1 C 14,5 C 86 % 1012,4 hPa 0,0 l/m 0 min 0 min 24 W/m 12,9 km/h (3 Bft) 93,48 %
21.06.2021 20:48 16,6 C 16,1 C 14,5 C 86 % 1012,4 hPa 0,0 l/m 0 min 0 min 22 W/m 16,1 km/h (3 Bft) 97,87 %
21.06.2021 20:50 16,6 C 16,1 C 14,5 C 86 % 1012,4 hPa 0,0 l/m 0 min 0 min 20 W/m 12,9 km/h (3 Bft) 98,00 %
21.06.2021 20:52 16,5 C 16,1 C 14,5 C 86 % 1012,4 hPa 0,0 l/m 0 min 0 min 18 W/m 9,7 km/h (2 Bft) 94,29 %
21.06.2021 20:54 16,5 C 16,1 C 14,5 C 86 % 1012,5 hPa 0,0 l/m 0 min 0 min 18 W/m 12,9 km/h (3 Bft) 97,87 %
21.06.2021 20:56 16,5 C 16,1 C 14,5 C 86 % 1012,6 hPa 0,0 l/m 0 min 0 min 19 W/m 12,9 km/h (3 Bft) 97,87 %
21.06.2021 20:58 16,5 C 16,1 C 14,5 C 86 % 1012,7 hPa 0,0 l/m 0 min 0 min 19 W/m 6,4 km/h (2 Bft) 97,87 %
21.06.2021 21:00 16,5 C 16,1 C 14,5 C 86 % 1012,7 hPa 0,0 l/m 0 min 0 min 17 W/m 6,4 km/h (2 Bft) 95,74 %
21.06.2021 21:02 16,5 C 16,1 C 14,5 C 86 % 1012,8 hPa 0,0 l/m 0 min 0 min 15 W/m 9,7 km/h (2 Bft) 96,15 %
21.06.2021 21:04 16,5 C 16,1 C 14,5 C 86 % 1012,8 hPa 0,0 l/m 0 min 0 min 13 W/m 12,9 km/h (3 Bft) 97,87 %
21.06.2021 21:06 16,5 C 16,1 C 14,5 C 86 % 1012,8 hPa 0,0 l/m 0 min 0 min 11 W/m 19,3 km/h (3 Bft) 98,00 %
21.06.2021 21:08 16,5 C 15,6 C 14,5 C 86 % 1012,8 hPa 0,0 l/m 0 min 0 min 9 W/m 19,3 km/h (3 Bft) 100,00 %
21.06.2021 21:10 16,5 C 15,6 C 14,5 C 86 % 1012,8 hPa 0,0 l/m 0 min 0 min 7 W/m 9,7 km/h (2 Bft) 100,00 %
21.06.2021 21:12 16,5 C 15,6 C 14,5 C 87 % 1012,9 hPa 0,0 l/m 0 min 0 min 7 W/m 22,5 km/h (4 Bft) 100,00 %
21.06.2021 21:14 16,5 C 15,6 C 14,5 C 86 % 1012,9 hPa 0,0 l/m 0 min 0 min 5 W/m 6,4 km/h (2 Bft) 95,74 %
21.06.2021 21:16 16,4 C 15,6 C 14,5 C 86 % 1013,0 hPa 0,0 l/m 0 min 0 min 5 W/m 9,7 km/h (2 Bft) 100,00 %
21.06.2021 21:18 16,4 C 15,6 C 14,5 C 86 % 1013,1 hPa 0,0 l/m 0 min 0 min 4 W/m 19,3 km/h (3 Bft) 100,00 %
21.06.2021 21:20 16,4 C 15,6 C 14,5 C 86 % 1013,0 hPa 0,0 l/m 0 min 0 min 0 W/m 12,9 km/h (3 Bft) 97,83 %
21.06.2021 21:22 16,3 C 15,6 C 14,5 C 86 % 1013,1 hPa 0,0 l/m 0 min 0 min 0 W/m 12,9 km/h (3 Bft) 100,00 %
21.06.2021 21:24 16,3 C 15,6 C 14,5 C 86 % 1013,1 hPa 0,0 l/m 0 min 0 min 1 W/m 12,9 km/h (3 Bft) 100,00 %
21.06.2021 21:26 16,3 C 15,6 C 14,5 C 87 % 1013,1 hPa 0,0 l/m 0 min 0 min 1 W/m 16,1 km/h (3 Bft) 100,00 %
21.06.2021 21:28 16,3 C 15,6 C 14,5 C 87 % 1013,1 hPa 0,0 l/m 0 min 0 min 0 W/m 16,1 km/h (3 Bft) 97,14 %
21.06.2021 21:30 16,3 C 15,6 C 13,9 C 87 % 1013,1 hPa 0,0 l/m 0 min 0 min 0 W/m 12,9 km/h (3 Bft) 100,00 %
21.06.2021 21:32 16,2 C 15,6 C 13,9 C 87 % 1013,1 hPa 0,0 l/m 0 min 0 min 4 W/m 9,7 km/h (2 Bft) 100,00 %
21.06.2021 21:34 16,2 C 15,6 C 13,9 C 87 % 1013,1 hPa 0,0 l/m 0 min 0 min 4 W/m 9,7 km/h (2 Bft) 100,00 %
21.06.2021 21:36 16,1 C 15,6 C 13,9 C 87 % 1013,0 hPa 0,0 l/m 0 min 0 min 0 W/m 9,7 km/h (2 Bft) 100,00 %
21.06.2021 21:38 16,1 C 15,6 C 13,9 C 87 % 1013,1 hPa 0,0 l/m 0 min 0 min 0 W/m 9,7 km/h (2 Bft) 97,92 %
21.06.2021 21:40 16,1 C 15,6 C 13,9 C 87 % 1013,0 hPa 0,0 l/m 0 min 0 min 0 W/m 19,3 km/h (3 Bft) 100,00 %
21.06.2021 21:42 16,1 C 15,6 C 13,9 C 87 % 1013,0 hPa 0,0 l/m 0 min 0 min 0 W/m 19,3 km/h (3 Bft) 100,00 %
21.06.2021 21:44 16,0 C 15,6 C 13,9 C 87 % 1013,1 hPa 0,0 l/m 0 min 0 min 0 W/m 16,1 km/h (3 Bft) 100,00 %
21.06.2021 21:46 16,0 C 15,6 C 13,9 C 87 % 1013,1 hPa 0,0 l/m 0 min 0 min 0 W/m 9,7 km/h (2 Bft) 97,83 %
21.06.2021 21:48 16,0 C 15,6 C 13,9 C 87 % 1013,1 hPa 0,0 l/m 0 min 0 min 0 W/m 6,4 km/h (2 Bft) 100,00 %
21.06.2021 21:50 16,0 C 15,6 C 13,9 C 87 % 1013,1 hPa 0,0 l/m 0 min 0 min 0 W/m 19,3 km/h (3 Bft) 100,00 %
21.06.2021 21:52 16,0 C 15,6 C 13,9 C 87 % 1013,0 hPa 0,0 l/m 0 min 0 min 0 W/m 16,1 km/h (3 Bft) 100,00 %
21.06.2021 21:54 16,0 C 15,6 C 13,9 C 88 % 1013,0 hPa 0,0 l/m 0 min 0 min 0 W/m 16,1 km/h (3 Bft) 100,00 %
21.06.2021 21:56 16,0 C 15,6 C 13,9 C 88 % 1013,0 hPa 0,0 l/m 0 min 0 min 0 W/m 9,7 km/h (2 Bft) 100,00 %
21.06.2021 21:58 16,0 C 15,6 C 13,9 C 88 % 1013,0 hPa 0,0 l/m 0 min 0 min 0 W/m 9,7 km/h (2 Bft) 100,00 %
21.06.2021 22:00 16,0 C 15,6 C 13,9 C 88 % 1013,0 hPa 0,0 l/m 0 min 0 min 0 W/m 9,7 km/h (2 Bft) 100,00 %
21.06.2021 22:02 15,9 C 15,6 C 13,9 C 88 % 1013,0 hPa 0,0 l/m 0 min 0 min 0 W/m 6,4 km/h (2 Bft) 100,00 %
21.06.2021 22:04 15,9 C 15,6 C 13,9 C 88 % 1013,0 hPa 0,0 l/m 0 min 0 min 0 W/m 9,7 km/h (2 Bft) 97,87 %
21.06.2021 22:06 15,9 C 15,6 C 13,9 C 88 % 1013,0 hPa 0,0 l/m 0 min 0 min 0 W/m 12,9 km/h (3 Bft) 98,00 %
21.06.2021 22:08 15,9 C 15,0 C 13,9 C 88 % 1013,0 hPa 0,0 l/m 0 min 0 min 0 W/m 9,7 km/h (2 Bft) 100,00 %
21.06.2021 22:10 15,9 C 15,0 C 13,9 C 88 % 1013,0 hPa 0,0 l/m 0 min 0 min 0 W/m 12,9 km/h (3 Bft) 97,87 %
21.06.2021 22:12 15,9 C 15,0 C 13,9 C 88 % 1013,0 hPa 0,0 l/m 0 min 0 min 0 W/m 19,3 km/h (3 Bft) 100,00 %
21.06.2021 22:14 15,9 C 15,0 C 13,9 C 88 % 1013,0 hPa 0,0 l/m 0 min 0 min 0 W/m 16,1 km/h (3 Bft) 100,00 %
21.06.2021 22:16 15,8 C 15,0 C 13,9 C 87 % 1013,1 hPa 0,0 l/m 0 min 0 min 0 W/m 22,5 km/h (4 Bft) 100,00 %
21.06.2021 22:18 15,8 C 15,0 C 13,9 C 88 % 1013,1 hPa 0,0 l/m 0 min 0 min 0 W/m 9,7 km/h (2 Bft) 100,00 %
21.06.2021 22:20 15,8 C 15,0 C 13,9 C 88 % 1013,1 hPa 0,0 l/m 0 min 0 min 0 W/m 12,9 km/h (3 Bft) 97,83 %
21.06.2021 22:22 15,8 C 15,0 C 13,9 C 88 % 1013,2 hPa 0,0 l/m 0 min 0 min 0 W/m 12,9 km/h (3 Bft) 100,00 %
21.06.2021 22:24 15,8 C 15,0 C 13,9 C 88 % 1013,2 hPa 0,0 l/m 0 min 0 min 0 W/m 9,7 km/h (2 Bft) 100,00 %
21.06.2021 22:26 15,8 C 15,0 C 13,9 C 88 % 1013,2 hPa 0,0 l/m 0 min 0 min 0 W/m 6,4 km/h (2 Bft) 100,00 %
21.06.2021 22:28 15,7 C 15,0 C 13,9 C 88 % 1013,2 hPa 0,0 l/m 0 min 0 min 0 W/m 6,4 km/h (2 Bft) 100,00 %
21.06.2021 22:30 15,8 C 15,0 C 13,9 C 88 % 1013,3 hPa 0,0 l/m 0 min 0 min 0 W/m 6,4 km/h (2 Bft) 100,00 %
21.06.2021 22:32 15,8 C 15,0 C 13,9 C 88 % 1013,3 hPa 0,0 l/m 0 min 0 min 0 W/m 6,4 km/h (2 Bft) 100,00 %
21.06.2021 22:34 15,7 C 15,0 C 13,9 C 88 % 1013,2 hPa 0,0 l/m 0 min 0 min 0 W/m 16,1 km/h (3 Bft) 100,00 %
21.06.2021 22:36 15,7 C 15,0 C 13,9 C 88 % 1013,3 hPa 0,0 l/m 0 min 0 min 0 W/m 12,9 km/h (3 Bft) 100,00 %
21.06.2021 22:38 15,7 C 15,0 C 13,9 C 88 % 1013,3 hPa 0,0 l/m 0 min 0 min 0 W/m 9,7 km/h (2 Bft) 97,87 %
21.06.2021 22:40 15,6 C 15,0 C 13,4 C 88 % 1013,3 hPa 0,0 l/m 0 min 0 min 0 W/m 12,9 km/h (3 Bft) 100,00 %
21.06.2021 22:42 15,6 C 15,0 C 13,4 C 88 % 1013,4 hPa 0,0 l/m 0 min 0 min 0 W/m 12,9 km/h (3 Bft) 95,74 %
21.06.2021 22:44 15,6 C 15,0 C 13,4 C 88 % 1013,4 hPa 0,0 l/m 0 min 0 min 0 W/m 19,3 km/h (3 Bft) 95,65 %
21.06.2021 22:46 15,5 C 15,0 C 13,4 C 88 % 1013,5 hPa 0,0 l/m 0 min 0 min 0 W/m 6,4 km/h (2 Bft) 92,68 %
21.06.2021 22:48 15,5 C 15,0 C 13,4 C 88 % 1013,4 hPa 0,0 l/m 0 min 0 min 0 W/m 12,9 km/h (3 Bft) 97,87 %
21.06.2021 22:50 15,5 C 15,0 C 13,4 C 88 % 1013,4 hPa 0,0 l/m 0 min 0 min 0 W/m 12,9 km/h (3 Bft) 93,62 %
21.06.2021 22:52 15,5 C 15,0 C 13,4 C 88 % 1013,5 hPa 0,0 l/m 0 min 0 min 0 W/m 12,9 km/h (3 Bft) 92,45 %
21.06.2021 22:54 15,5 C 15,0 C 13,4 C 88 % 1013,5 hPa 0,0 l/m 0 min 0 min 0 W/m 6,4 km/h (2 Bft) 95,74 %
21.06.2021 22:56 15,5 C 15,0 C 13,4 C 88 % 1013,5 hPa 0,0 l/m 0 min 0 min 0 W/m 16,1 km/h (3 Bft) 93,48 %
21.06.2021 22:58 15,5 C 15,0 C 13,4 C 88 % 1013,6 hPa 0,0 l/m 0 min 0 min 0 W/m 16,1 km/h (3 Bft) 96,00 %
21.06.2021 23:00 15,5 C 15,0 C 13,4 C 88 % 1013,7 hPa 0,0 l/m 0 min 0 min 0 W/m 12,9 km/h (3 Bft) 95,74 %
21.06.2021 23:02 15,4 C 15,0 C 13,4 C 88 % 1013,8 hPa 0,0 l/m 0 min 0 min 0 W/m 12,9 km/h (3 Bft) 92,00 %
21.06.2021 23:04 15,4 C 15,0 C 13,4 C 88 % 1013,9 hPa 0,0 l/m 0 min 0 min 0 W/m 9,7 km/h (2 Bft) 93,62 %
21.06.2021 23:06 15,4 C 15,0 C 13,4 C 88 % 1013,9 hPa 0,0 l/m 0 min 0 min 0 W/m 12,9 km/h (3 Bft) 93,48 %
21.06.2021 23:08 15,4 C 15,0 C 13,4 C 88 % 1014,0 hPa 0,0 l/m 0 min 0 min 0 W/m 6,4 km/h (2 Bft) 91,49 %
21.06.2021 23:10 15,4 C 15,0 C 13,4 C 88 % 1014,0 hPa 0,0 l/m 0 min 0 min 0 W/m 6,4 km/h (2 Bft) 93,62 %
21.06.2021 23:12 15,4 C 15,0 C 13,4 C 88 % 1014,0 hPa 0,0 l/m 0 min 0 min 0 W/m 12,9 km/h (3 Bft) 93,62 %
21.06.2021 23:14 15,4 C 15,0 C 13,4 C 88 % 1014,0 hPa 0,0 l/m 0 min 0 min 0 W/m 9,7 km/h (2 Bft) 95,74 %
21.06.2021 23:16 15,4 C 15,0 C 13,4 C 88 % 1014,0 hPa 0,0 l/m 0 min 0 min 0 W/m 16,1 km/h (3 Bft) 93,62 %
21.06.2021 23:18 15,4 C 15,0 C 13,4 C 88 % 1014,0 hPa 0,0 l/m 0 min 0 min 0 W/m 16,1 km/h (3 Bft) 93,48 %
21.06.2021 23:20 15,4 C 15,0 C 13,4 C 88 % 1014,1 hPa 0,0 l/m 0 min 0 min 0 W/m 9,7 km/h (2 Bft) 91,49 %
21.06.2021 23:22 15,4 C 15,0 C 13,4 C 88 % 1014,1 hPa 0,0 l/m 0 min 0 min 0 W/m 12,9 km/h (3 Bft) 93,62 %
21.06.2021 23:24 15,4 C 15,0 C 13,4 C 88 % 1014,1 hPa 0,0 l/m 0 min 0 min 0 W/m 16,1 km/h (3 Bft) 93,62 %
21.06.2021 23:26 15,4 C 15,0 C 13,4 C 88 % 1014,1 hPa 0,0 l/m 0 min 0 min 0 W/m 3,2 km/h (1 Bft) 93,62 %
21.06.2021 23:28 15,4 C 15,0 C 13,4 C 88 % 1014,2 hPa 0,0 l/m 0 min 0 min 0 W/m 9,7 km/h (2 Bft) 91,49 %
21.06.2021 23:30 15,4 C 15,0 C 13,4 C 88 % 1014,2 hPa 0,0 l/m 0 min 0 min 0 W/m 6,4 km/h (2 Bft) 91,30 %
21.06.2021 23:32 15,4 C 15,0 C 13,4 C 88 % 1014,2 hPa 0,0 l/m 0 min 0 min 0 W/m 9,7 km/h (2 Bft) 93,62 %
21.06.2021 23:34 15,4 C 15,0 C 13,4 C 88 % 1014,2 hPa 0,0 l/m 0 min 0 min 0 W/m 12,9 km/h (3 Bft) 95,74 %
21.06.2021 23:36 15,4 C 15,0 C 13,4 C 88 % 1014,3 hPa 0,0 l/m 0 min 0 min 0 W/m 12,9 km/h (3 Bft) 93,62 %
21.06.2021 23:38 15,4 C 15,0 C 13,4 C 88 % 1014,3 hPa 0,0 l/m 0 min 0 min 0 W/m 12,9 km/h (3 Bft) 91,49 %
21.06.2021 23:40 15,4 C 15,0 C 13,4 C 88 % 1014,4 hPa 0,0 l/m 0 min 0 min 0 W/m 6,4 km/h (2 Bft) 95,65 %
21.06.2021 23:42 15,4 C 15,0 C 13,4 C 88 % 1014,4 hPa 0,0 l/m 0 min 0 min 0 W/m 12,9 km/h (3 Bft) 95,74 %
21.06.2021 23:44 15,4 C 15,0 C 13,4 C 88 % 1014,4 hPa 0,0 l/m 0 min 0 min 0 W/m 9,7 km/h (2 Bft) 95,74 %
21.06.2021 23:46 15,4 C 15,0 C 13,4 C 88 % 1014,3 hPa 0,0 l/m 0 min 0 min 0 W/m 6,4 km/h (2 Bft) 91,49 %
21.06.2021 23:48 15,4 C 15,0 C 13,4 C 88 % 1014,3 hPa 0,0 l/m 0 min 0 min 0 W/m 12,9 km/h (3 Bft) 97,87 %
21.06.2021 23:50 15,4 C 15,0 C 13,4 C 88 % 1014,2 hPa 0,0 l/m 0 min 0 min 0 W/m 6,4 km/h (2 Bft) 100,00 %
21.06.2021 23:52 15,4 C 14,4 C 13,4 C 88 % 1014,2 hPa 0,0 l/m 0 min 0 min 0 W/m 12,9 km/h (3 Bft) 97,83 %
21.06.2021 23:54 15,4 C 15,0 C 13,4 C 88 % 1014,2 hPa 0,0 l/m 0 min 0 min 0 W/m 6,4 km/h (2 Bft) 97,87 %
21.06.2021 23:56 15,4 C 15,0 C 13,4 C 88 % 1014,2 hPa 0,0 l/m 0 min 0 min 0 W/m 6,4 km/h (2 Bft) 97,87 %
21.06.2021 23:58 15,4 C 15,0 C 13,4 C 88 % 1014,2 hPa 0,0 l/m 0 min 0 min 0 W/m 6,4 km/h (2 Bft) 97,87 %
_ Min-Zeit 11:50 23:52 22:40 00:00 05:48 - - - - 00:22 14:18
Minimum _ 15,2 C 14,4 C 13,4 C 73 % 1003,5 hPa - - - - 0,0 km/h (0 Bft) 89,36 %
_ Max-Zeit 00:00 18:16 00:00 04:34 23:40 03:42 12:26 00:08 15:56 12:28 00:56
Maximum _ 22,4 C 23,9 C 19,5 C 99 % 1014,4 hPa 1,4 l/m 2 min 4 min 977 W/m 41,8 km/h
N-NW (6 Bft)
100,00 %
Durchschnitt _ 17,2 C 17,0 C 15,5 C 92 % 1007,9 hPa #20,2 l/m #1:10 h #3:00 h 157 W/m 14,8 km/h (3 Bft) 97,43 %
© 2021 W. Hausmann